M I D A S
Marine Information and Data Acquisition System
Tripno 2307 of the Zeeleeuw from 2012-05-04 07:47:58 to 2012-05-04 12:19:55
Back to CruiseResearch ActivitiesStationsMapUnderway DataData graphs

EquipmentUnitsComment
TimeDGPSUTC
LatitudeDGPSDM.mWGS84
LongitudeDGPSDM.mWGS84
TemperatureSBE03/SBE38deg celciusITS90
ConductivitySBE21S/mITS90
SalinitySBE21 Practical Salinity Units
ChlorophylAChelsea fluorimeterg/lCalibrated in Aceton
Missing or incorrect values are displayed as -999
Sea surface data collected by the RV Zeeleeuw from 2012-05-04 07:44:51 to 2012-05-04 12:28:01
                                                                                    Next 1000 lines
Time Latitude Longitude Temperature Conductivity Salinity ChlorophylA
2012-05-04 07:45:01 51°13.633 2°56.013 18.6091 0.070161 0.345274 -2.458615
2012-05-04 07:45:06 51°13.634 2°56.01 18.5909 0.070161 0.345279 -2.458615
2012-05-04 07:45:11 51°13.634 2°56.005 18.6039 0.070161 0.345285 -2.458615
2012-05-04 07:45:16 51°13.635 2°55.999 18.6911 0.070161 0.345285 -2.458615
2012-05-04 07:45:21 51°13.636 2°55.993 18.6989 0.070161 0.345285 -2.458615
2012-05-04 07:45:26 51°13.638 2°55.986 18.6857 0.070161 0.345279 -2.458615
2012-05-04 07:45:31 51°13.639 2°55.98 18.7241 0.070161 0.345269 -2.458615
2012-05-04 07:45:36 51°13.64 2°55.973 18.6869 0.070161 0.345269 -2.458615
2012-05-04 07:45:41 51°13.641 2°55.965 18.6773 0.070161 0.345258 -2.458615
2012-05-04 07:45:46 51°13.642 2°55.958 18.7166 0.070263 0.345779 -2.458615
2012-05-04 07:45:51 51°13.644 2°55.95 18.7168 0.070263 0.345779 -2.458615
2012-05-04 07:45:56 51°13.645 2°55.941 18.7326 0.070263 0.345784 -2.458615
2012-05-04 07:46:01 51°13.647 2°55.933 18.7378 0.070263 0.345795 -2.458615
2012-05-04 07:46:07 51°13.649 2°55.923 18.735 0.070263 0.3458 -2.458615
2012-05-04 07:46:11 51°13.65 2°55.916 18.7216 0.070263 0.3458 -2.458615
2012-05-04 07:46:16 51°13.653 2°55.906 18.7519 0.070263 0.3458 -2.458615
2012-05-04 07:46:21 51°13.655 2°55.897 18.7452 0.070263 0.3458 -2.458615
2012-05-04 07:46:26 51°13.658 2°55.888 18.7555 0.070263 0.3458 -2.458615
2012-05-04 07:46:31 51°13.661 2°55.879 18.7554 0.070263 0.3458 -2.458615
2012-05-04 07:46:36 51°13.664 2°55.87 18.7403 0.070263 0.3458 -2.458615
2012-05-04 07:46:41 51°13.667 2°55.861 18.7467 0.070263 0.3458 -2.458615
2012-05-04 07:46:46 51°13.671 2°55.852 18.7639 0.070263 0.3458 -2.458615
2012-05-04 07:46:51 51°13.674 2°55.843 18.7518 0.070263 0.3458 -2.458615
2012-05-04 07:46:56 51°13.677 2°55.835 18.7498 0.070263 0.345805 -2.458615
2012-05-04 07:47:01 51°13.681 2°55.826 18.7401 0.070263 0.345805 -2.458615
2012-05-04 07:47:06 51°13.684 2°55.818 18.7198 0.070263 0.345805 -2.458615
2012-05-04 07:47:11 51°13.688 2°55.81 18.7581 0.070263 0.345805 -2.458615
2012-05-04 07:47:16 51°13.691 2°55.801 18.7214 0.070263 0.345805 -2.458615
2012-05-04 07:47:21 51°13.694 2°55.793 18.7536 0.070263 0.345805 -2.458615
2012-05-04 07:47:26 51°13.697 2°55.785 18.7144 0.070263 0.345805 -2.458615
2012-05-04 07:47:31 51°13.7 2°55.777 18.7492 0.070263 0.345805 -2.458615
2012-05-04 07:47:36 51°13.704 2°55.77 18.7352 0.070263 0.3458 -2.458615
2012-05-04 07:47:41 51°13.708 2°55.763 18.7497 0.070263 0.345805 -2.458615
2012-05-04 07:47:46 51°13.712 2°55.756 18.7393 0.070263 0.345805 -2.458615
2012-05-04 07:47:51 51°13.716 2°55.749 18.7532 0.070263 0.345805 -2.458615
2012-05-04 07:47:56 51°13.721 2°55.742 18.7409 0.070263 0.345805 -2.458615
2012-05-04 07:48:01 51°13.726 2°55.735 18.7458 0.070263 0.345805 -2.458615
2012-05-04 07:48:06 51°13.731 2°55.729 18.7356 0.070263 0.34581 -2.458615
2012-05-04 07:48:11 51°13.736 2°55.723 18.7957 0.070263 0.34581 -2.458615
2012-05-04 07:48:16 51°13.741 2°55.718 18.8114 0.070263 0.345805 -2.458615
2012-05-04 07:48:21 51°13.745 2°55.715 18.7115 0.070263 0.345805 -2.458615
2012-05-04 07:48:26 51°13.748 2°55.712 18.8006 0.070263 0.3458 -2.458615
2012-05-04 07:48:31 51°13.751 2°55.71 18.7346 0.070263 0.345784 -2.458615
2012-05-04 07:48:36 51°13.753 2°55.708 18.7495 0.070263 0.345758 -2.458615
2012-05-04 07:48:41 51°13.756 2°55.706 18.7384 0.070263 0.345758 -2.458615
2012-05-04 07:48:46 51°13.759 2°55.703 18.7322 0.070263 0.345768 -2.458615
2012-05-04 07:48:51 51°13.763 2°55.7 18.7737 0.070263 0.345768 -2.458615
2012-05-04 07:48:56 51°13.767 2°55.698 18.7465 0.070263 0.3458 -2.458615
2012-05-04 07:49:01 51°13.771 2°55.694 18.7751 0.070366 0.346347 -2.458615
2012-05-04 07:49:06 51°13.776 2°55.691 18.6959 0.070366 0.346373 -2.458615
2012-05-04 07:49:11 51°13.78 2°55.688 18.7148 0.070366 0.346379 -2.458615
2012-05-04 07:49:16 51°13.786 2°55.683 18.6202 0.070366 0.346357 -2.458615
2012-05-04 07:49:21 51°13.791 2°55.679 18.7286 0.070366 0.346357 -2.458615
2012-05-04 07:49:26 51°13.796 2°55.674 18.6858 0.070366 0.346342 -2.458615
2012-05-04 07:49:31 51°13.801 2°55.669 18.7391 0.070366 0.34631 -2.458615
2012-05-04 07:49:36 51°13.807 2°55.664 18.6984 0.070366 0.346294 -2.458615
2012-05-04 07:49:41 51°13.812 2°55.658 18.7048 0.070366 0.346278 -2.458615
2012-05-04 07:49:46 51°13.818 2°55.653 18.7132 0.070366 0.346289 -2.458615
2012-05-04 07:49:51 51°13.824 2°55.647 18.7239 0.070366 0.346289 -2.458615
2012-05-04 07:49:56 51°13.831 2°55.642 18.7167 0.070366 0.346304 -2.458615
2012-05-04 07:50:01 51°13.838 2°55.637 18.7155 0.070366 0.346315 -2.458615
2012-05-04 07:50:06 51°13.844 2°55.631 18.7678 0.070366 0.346331 -2.458615
2012-05-04 07:50:11 51°13.851 2°55.626 18.7456 0.070366 0.346342 -2.458615
2012-05-04 07:50:16 51°13.858 2°55.621 18.7606 0.070366 0.346342 -2.458615
2012-05-04 07:50:21 51°13.864 2°55.617 18.7459 0.070366 0.346342 -2.458615
2012-05-04 07:50:26 51°13.87 2°55.612 18.7644 0.070366 0.346336 -2.458615
2012-05-04 07:50:31 51°13.876 2°55.608 18.7686 0.070366 0.346326 -2.458615
2012-05-04 07:50:36 51°13.882 2°55.604 18.75 0.070366 0.346315 -2.458615
2012-05-04 07:50:41 51°13.888 2°55.601 18.7699 0.070366 0.34631 -2.458615
2012-05-04 07:50:46 51°13.893 2°55.598 18.7839 0.070366 0.34631 -2.458615
2012-05-04 07:50:51 51°13.898 2°55.596 18.7849 0.070366 0.34631 -2.458615
2012-05-04 07:50:56 51°13.903 2°55.594 18.7576 0.070366 0.346304 -2.458615
2012-05-04 07:51:01 51°13.908 2°55.592 18.7744 0.070366 0.346315 -2.458615
2012-05-04 07:51:06 51°13.913 2°55.591 18.7639 0.070366 0.346315 -2.458615
2012-05-04 07:51:11 51°13.917 2°55.59 18.7417 0.070366 0.34632 -2.458615
2012-05-04 07:51:16 51°13.922 2°55.59 18.7206 0.070366 0.34632 -2.458615
2012-05-04 07:51:21 51°13.926 2°55.59 18.7486 0.070366 0.34632 -2.458615
2012-05-04 07:51:26 51°13.93 2°55.59 18.1245 0.070366 0.346326 -2.458615
2012-05-04 07:51:31 51°13.934 2°55.59 18.0515 0.070366 0.34632 -2.458615
2012-05-04 07:51:36 51°13.938 2°55.591 18.4921 0.070366 0.34632 -2.458615
2012-05-04 07:51:41 51°13.942 2°55.592 18.4341 0.070366 0.346315 -2.458615
2012-05-04 07:51:46 51°13.946 2°55.593 18.3485 0.070366 0.346315 -2.458615
2012-05-04 07:51:51 51°13.95 2°55.594 18.3299 0.070366 0.346315 -2.458615
2012-05-04 07:51:56 51°13.953 2°55.596 18.0633 0.070366 0.346315 -2.458615
2012-05-04 07:52:01 51°13.957 2°55.598 18.0209 0.070366 0.346315 -2.458615
2012-05-04 07:52:06 51°13.961 2°55.6 18.1915 0.070366 0.34632 -2.458615
2012-05-04 07:52:11 51°13.964 2°55.603 18.3489 0.070366 0.34632 -2.458615
2012-05-04 07:52:16 51°13.968 2°55.605 18.4386 0.070366 0.34632 -2.458615
2012-05-04 07:52:21 51°13.971 2°55.608 18.4352 0.070366 0.34632 -2.458615
2012-05-04 07:52:26 51°13.974 2°55.611 18.4261 0.070366 0.346315 -2.458615
2012-05-04 07:52:31 51°13.977 2°55.613 18.4153 0.070366 0.346315 -2.458615
2012-05-04 07:52:36 51°13.979 2°55.615 18.4078 0.070366 0.34631 -2.458615
2012-05-04 07:52:41 51°13.981 2°55.616 18.3619 0.070366 0.34631 -2.458615
2012-05-04 07:52:46 51°13.981 2°55.617 18.3691 0.070366 0.34631 -2.458615
2012-05-04 07:52:51 51°13.982 2°55.617 18.3919 0.070366 0.34631 -2.458615
2012-05-04 07:52:56 51°13.982 2°55.616 18.4172 0.070366 0.346304 -2.458615
2012-05-04 07:53:01 51°13.982 2°55.616 18.4117 0.070366 0.346304 -2.458615
2012-05-04 07:53:06 51°13.982 2°55.614 18.4125 0.070366 0.346304 -2.458615
2012-05-04 07:53:11 51°13.981 2°55.613 18.3879 0.070366 0.34631 -2.458615
2012-05-04 07:53:16 51°13.981 2°55.61 18.387 0.070366 0.34631 -2.458615
2012-05-04 07:53:21 51°13.98 2°55.607 18.3883 0.070366 0.34631 -2.458615
2012-05-04 07:53:26 51°13.98 2°55.604 18.3909 0.070366 0.34631 -2.458615
2012-05-04 07:53:31 51°13.98 2°55.599 18.3899 0.070366 0.346315 -2.458615
2012-05-04 07:53:36 51°13.98 2°55.594 18.4157 0.070366 0.34631 -2.458615
2012-05-04 07:53:41 51°13.981 2°55.588 18.4218 0.070366 0.346315 -2.458615
2012-05-04 07:53:46 51°13.981 2°55.582 18.4224 0.070366 0.346315 -2.458615
2012-05-04 07:53:51 51°13.983 2°55.576 18.425 0.070366 0.346315 -2.458615
2012-05-04 07:53:56 51°13.985 2°55.569 18.4249 0.070366 0.346315 -2.458615
2012-05-04 07:54:01 51°13.988 2°55.563 18.4398 0.070366 0.346315 -2.458615
2012-05-04 07:54:06 51°13.991 2°55.557 18.4452 0.070366 0.34632 -2.458615
2012-05-04 07:54:11 51°13.994 2°55.551 18.4256 0.070366 0.34632 -2.458615
2012-05-04 07:54:16 51°13.999 2°55.546 18.4121 0.070366 0.34632 -2.458615
2012-05-04 07:54:21 51°14.003 2°55.541 18.415 0.070366 0.34632 -2.458615
2012-05-04 07:54:26 51°14.008 2°55.535 18.4127 0.070366 0.34632 -2.458615
2012-05-04 07:54:31 51°14.014 2°55.53 18.4175 0.070366 0.346315 -2.458615
2012-05-04 07:54:36 51°14.02 2°55.524 18.4157 0.070366 0.346315 -2.458615
2012-05-04 07:54:41 51°14.027 2°55.518 18.4118 0.070366 0.34631 -2.458615
2012-05-04 07:54:46 51°14.034 2°55.512 18.4153 0.070366 0.34631 -2.458615
2012-05-04 07:54:51 51°14.041 2°55.505 18.419 0.070366 0.34631 -2.458615
2012-05-04 07:54:56 51°14.049 2°55.498 18.4179 0.070366 0.34631 -2.458615
2012-05-04 07:55:01 51°14.058 2°55.49 18.4167 0.070366 0.34631 -2.458615
2012-05-04 07:55:07 51°14.069 2°55.48 18.419 0.070366 0.346315 -2.458615
2012-05-04 07:55:11 51°14.076 2°55.473 18.4191 0.070366 0.346315 -2.458615
2012-05-04 07:55:16 51°14.086 2°55.465 18.4203 0.070366 0.346315 -2.458615
2012-05-04 07:55:21 51°14.096 2°55.456 18.4222 0.070366 0.346315 -2.458615
2012-05-04 07:55:26 51°14.106 2°55.447 18.4217 0.070366 0.346315 -2.458615
2012-05-04 07:55:31 51°14.117 2°55.437 18.4278 0.070366 0.346315 -2.458615
2012-05-04 07:55:36 51°14.128 2°55.428 18.4244 0.070366 0.346304 -2.458615
2012-05-04 07:55:41 51°14.138 2°55.418 18.4252 0.070366 0.346315 -2.458615
2012-05-04 07:55:46 51°14.149 2°55.407 18.4342 0.070366 0.346304 -2.458615
2012-05-04 07:55:51 51°14.16 2°55.397 18.4315 0.070366 0.346304 -2.458615
2012-05-04 07:55:56 51°14.172 2°55.386 18.4334 0.070366 0.346304 -2.458615
2012-05-04 07:56:01 51°14.183 2°55.375 18.4401 0.070366 0.346304 -2.458615
2012-05-04 07:56:06 51°14.195 2°55.365 18.4348 0.070366 0.346304 -2.458615
2012-05-04 07:56:11 51°14.206 2°55.354 18.4376 0.070366 0.346304 -2.458615
2012-05-04 07:56:16 51°14.218 2°55.344 18.4349 0.070366 0.346315 -2.458615
2012-05-04 07:56:21 51°14.23 2°55.332 18.4343 0.070366 0.346315 -2.458615
2012-05-04 07:56:26 51°14.242 2°55.32 18.4398 0.070366 0.34632 -2.458615
2012-05-04 07:56:31 51°14.254 2°55.308 18.4382 0.070366 0.346315 -2.458615
2012-05-04 07:56:36 51°14.267 2°55.297 18.4378 0.070366 0.346315 -2.458615
2012-05-04 07:56:41 51°14.279 2°55.284 18.4408 0.070366 0.346315 -2.458615
2012-05-04 07:56:46 51°14.292 2°55.273 18.4406 0.070366 0.346315 -2.458615
2012-05-04 07:56:51 51°14.305 2°55.262 18.4405 0.070366 0.346315 -2.458615
2012-05-04 07:56:56 51°14.318 2°55.25 18.4411 0.070366 0.346336 -2.458615
2012-05-04 07:57:01 51°14.331 2°55.237 18.4408 0.070366 0.346363 -2.458615
2012-05-04 07:57:06 51°14.345 2°55.225 18.4451 0.070366 0.346342 -2.458615
2012-05-04 07:57:11 51°14.358 2°55.214 18.4436 0.070366 0.34632 -2.458615
2012-05-04 07:57:16 51°14.372 2°55.201 18.4442 0.070366 0.346294 -2.458615
2012-05-04 07:57:21 51°14.385 2°55.187 18.4446 0.070366 0.346294 -2.458615
2012-05-04 07:57:26 51°14.398 2°55.173 18.4465 0.070366 0.346262 -2.458615
2012-05-04 07:57:31 51°14.411 2°55.159 18.4505 0.070366 0.346257 -2.458615
2012-05-04 07:57:36 51°14.425 2°55.145 18.4502 0.070366 0.346267 -2.458615
2012-05-04 07:57:41 51°14.438 2°55.13 18.4503 0.070366 0.346304 -2.458615
2012-05-04 07:57:46 51°14.451 2°55.114 18.4649 0.070366 0.34632 -2.458615
2012-05-04 07:57:51 51°14.465 2°55.1 18.4595 0.070366 0.34632 -2.458615
2012-05-04 07:57:56 51°14.478 2°55.086 18.4642 0.070366 0.346342 -2.458615
2012-05-04 07:58:01 51°14.493 2°55.073 18.4609 0.070366 0.346347 -2.458615
2012-05-04 07:58:06 51°14.507 2°55.059 18.4614 0.070263 0.345832 -2.458615
2012-05-04 07:58:11 51°14.52 2°55.045 18.4616 0.070366 0.346342 -2.458615
2012-05-04 07:58:16 51°14.534 2°55.03 18.4626 0.070366 0.346331 -2.458615
2012-05-04 07:58:21 51°14.547 2°55.014 18.4619 0.070366 0.346331 -2.458615
2012-05-04 07:58:26 51°14.56 2°54.998 18.4633 0.070366 0.346326 -2.458615
2012-05-04 07:58:31 51°14.573 2°54.981 18.4624 0.070263 0.3458 -2.458615
2012-05-04 07:58:36 51°14.584 2°54.962 18.4617 0.070366 0.346331 -2.458615
2012-05-04 07:58:41 51°14.595 2°54.942 18.4613 0.070366 0.346342 -2.458615
2012-05-04 07:58:46 51°14.605 2°54.921 18.4633 0.070366 0.346347 -2.458615
2012-05-04 07:58:51 51°14.615 2°54.899 18.4634 0.070366 0.346347 -2.458615
2012-05-04 07:58:56 51°14.623 2°54.876 18.4652 0.070263 0.345826 -2.458615
2012-05-04 07:59:01 51°14.632 2°54.853 18.464 0.070366 0.346347 -2.458615
2012-05-04 07:59:06 51°14.638 2°54.829 18.4671 0.070263 0.345832 -2.458615
2012-05-04 07:59:11 51°14.645 2°54.804 18.4663 0.070366 0.346357 -2.458615
2012-05-04 07:59:16 51°14.649 2°54.778 18.4664 0.070366 0.346357 -2.458615
2012-05-04 07:59:21 51°14.653 2°54.752 18.4668 0.070366 0.346357 -2.458615
2012-05-04 07:59:26 51°14.655 2°54.725 18.4668 0.070366 0.346357 -2.458615
2012-05-04 07:59:31 51°14.655 2°54.698 18.4671 0.070263 0.345842 -2.458615
2012-05-04 07:59:36 51°14.655 2°54.672 18.4668 0.070366 0.346357 -2.458615
2012-05-04 07:59:40 51°14.653 2°54.65 18.4676 0.070366 0.346357 -2.458615
2012-05-04 07:59:45 51°14.65 2°54.624 18.468 0.070366 0.346357 -2.458615
2012-05-04 07:59:50 51°14.645 2°54.598 18.4679 0.070366 0.346357 -2.458615
2012-05-04 07:59:55 51°14.639 2°54.573 18.4673 0.070366 0.346363 -2.458615
2012-05-04 08:00:00 51°14.632 2°54.548 18.4714 0.070366 0.346363 -2.458615
2012-05-04 08:00:04 51°14.626 2°54.528 18.4726 0.070263 0.345847 -2.458615
2012-05-04 08:00:10 51°14.615 2°54.499 18.4864 0.070366 0.346363 -2.458615
2012-05-04 08:00:15 51°14.607 2°54.475 18.4771 0.070366 0.346357 -2.458615
2012-05-04 08:00:20 51°14.598 2°54.452 18.5 0.070366 0.346357 -2.458615
2012-05-04 08:00:24 51°14.59 2°54.434 18.4891 0.070366 0.346363 -2.458615
2012-05-04 08:00:29 51°14.58 2°54.411 18.5222 0.070366 0.346368 -2.458615
2012-05-04 08:00:34 51°14.57 2°54.388 18.5015 0.070366 0.346357 -2.458615
2012-05-04 08:00:39 51°14.56 2°54.365 18.5012 0.070263 0.345837 -2.458615
2012-05-04 08:00:44 51°14.55 2°54.342 18.4941 0.070366 0.346368 -2.458615
2012-05-04 08:00:48 51°14.542 2°54.324 18.4949 0.070366 0.346368 -2.458615
2012-05-04 08:00:53 51°14.531 2°54.302 18.505 0.070366 0.346373 -2.458615
2012-05-04 08:00:58 51°14.521 2°54.279 18.4948 0.070263 0.345858 -2.458615
2012-05-04 08:01:03 51°14.51 2°54.257 18.5045 0.070263 0.345863 -2.458615
2012-05-04 08:01:08 51°14.499 2°54.235 18.4966 0.070366 0.346389 -2.458615
2012-05-04 08:01:12 51°14.491 2°54.217 18.5468 0.070263 0.345874 -2.458615
2012-05-04 08:01:18 51°14.477 2°54.192 18.5065 0.070263 0.345874 -2.458615
2012-05-04 08:01:23 51°14.466 2°54.169 18.5458 0.070366 0.346405 -2.458615
2012-05-04 08:01:28 51°14.455 2°54.147 18.5079 0.070263 0.345874 -2.458615
2012-05-04 08:01:32 51°14.447 2°54.129 18.5256 0.070263 0.345884 -2.458615
2012-05-04 08:01:37 51°14.436 2°54.107 18.5229 0.070263 0.345752 -2.458615
2012-05-04 08:01:43 51°14.423 2°54.08 18.5203 0.070263 0.345668 -2.458615
2012-05-04 08:01:48 51°14.413 2°54.057 18.5268 0.070263 0.345668 -2.458615
2012-05-04 08:01:52 51°14.404 2°54.039 18.5128 0.070263 0.345673 -2.458615
2012-05-04 08:01:58 51°14.392 2°54.011 18.5066 0.070263 0.345763 -2.458615
2012-05-04 08:02:03 51°14.382 2°53.988 18.5026 0.070366 0.34641 -2.458615
2012-05-04 08:02:08 51°14.372 2°53.966 18.5187 0.070263 0.345996 -2.458615
2012-05-04 08:02:12 51°14.363 2°53.948 18.5058 0.070263 0.346038 -2.458615
2012-05-04 08:02:18 51°14.351 2°53.921 18.5175 0.070263 0.346038 -2.458615
2012-05-04 08:02:23 51°14.34 2°53.898 18.5109 0.070263 0.346033 -2.458615
2012-05-04 08:02:28 51°14.329 2°53.876 18.5283 0.070263 0.345996 -2.458615
2012-05-04 08:02:33 51°14.319 2°53.853 18.509 0.070263 0.345937 -2.458615
2012-05-04 08:02:38 51°14.309 2°53.83 18.5253 0.070263 0.345895 -2.458615
2012-05-04 08:02:43 51°14.298 2°53.808 18.5129 0.070263 0.345874 -2.458615
2012-05-04 08:02:48 51°14.288 2°53.785 18.5158 0.070263 0.345874 -2.458615
2012-05-04 08:02:52 51°14.28 2°53.767 18.5072 0.070263 0.345874 -2.458615
2012-05-04 08:02:58 51°14.267 2°53.741 18.5223 0.070263 0.345927 -2.458615
2012-05-04 08:03:03 51°14.255 2°53.72 18.5096 0.070263 0.345948 -2.458615
2012-05-04 08:03:08 51°14.243 2°53.699 18.5209 0.070263 0.345996 -2.458615
2012-05-04 08:03:12 51°14.234 2°53.683 18.5355 0.070263 0.346017 -2.458615
2012-05-04 08:03:18 51°14.22 2°53.657 18.5302 0.070263 0.346017 -2.458615
2012-05-04 08:03:23 51°14.208 2°53.636 18.5207 0.070263 0.346033 -2.458615
2012-05-04 08:03:28 51°14.196 2°53.616 18.5315 0.070263 0.346048 -2.458615
2012-05-04 08:03:33 51°14.184 2°53.596 18.5189 0.070263 0.346033 -2.458615
2012-05-04 08:03:38 51°14.172 2°53.576 18.529 0.070263 0.346027 -2.458615
2012-05-04 08:03:43 51°14.16 2°53.557 18.5147 0.070263 0.346022 -2.458615
2012-05-04 08:03:48 51°14.148 2°53.536 18.545 0.070263 0.346022 -2.458615
2012-05-04 08:03:52 51°14.137 2°53.522 18.544 0.070263 0.346001 -2.458615
2012-05-04 08:03:58 51°14.124 2°53.497 18.5404 0.070263 0.346043 -2.458615
2012-05-04 08:04:03 51°14.11 2°53.478 18.5922 0.070161 0.345496 -2.458615
2012-05-04 08:04:08 51°14.1 2°53.456 18.5418 0.070263 0.34608 -2.458615
2012-05-04 08:04:12 51°14.089 2°53.442 18.5832 0.070263 0.346059 -2.458615
2012-05-04 08:04:18 51°14.076 2°53.416 18.5833 0.070263 0.346059 -2.458615
2012-05-04 08:04:23 51°14.064 2°53.396 18.5473 0.070263 0.346123 -2.458615
2012-05-04 08:04:28 51°14.052 2°53.374 18.5981 0.070263 0.346096 -2.458615
2012-05-04 08:04:32 51°14.044 2°53.356 18.5482 0.070161 0.345607 -2.458615
2012-05-04 08:04:38 51°14.03 2°53.331 18.6028 0.070263 0.346117 -2.458615
2012-05-04 08:04:43 51°14.02 2°53.309 18.5496 0.070161 0.345607 -2.458615
2012-05-04 08:04:48 51°14.008 2°53.288 18.5972 0.070161 0.345607 -2.458615
2012-05-04 08:04:53 51°13.999 2°53.265 18.5453 0.070263 0.346139 -2.458615
2012-05-04 08:04:58 51°13.986 2°53.245 18.5883 0.070161 0.345607 -2.458615
2012-05-04 08:05:03 51°13.977 2°53.222 18.564 0.070161 0.345644 -2.458615
2012-05-04 08:05:08 51°13.965 2°53.201 18.5669 0.070161 0.345644 -2.458615
2012-05-04 08:05:13 51°13.955 2°53.178 18.5668 0.070161 0.345655 -2.458615
2012-05-04 08:05:18 51°13.944 2°53.157 18.55 0.070161 0.345655 -2.458615
2012-05-04 08:05:23 51°13.933 2°53.135 18.5702 0.070161 0.345665 -2.458615
2012-05-04 08:05:28 51°13.922 2°53.112 18.5493 0.070161 0.345676 -2.458615
2012-05-04 08:05:32 51°13.914 2°53.095 18.5699 0.070161 0.345676 -2.458615
2012-05-04 08:05:38 51°13.902 2°53.067 18.5558 0.070161 0.345702 -2.458615
2012-05-04 08:05:43 51°13.892 2°53.044 18.5712 0.070161 0.345713 -2.458615
2012-05-04 08:05:48 51°13.882 2°53.021 18.5583 0.070161 0.345713 -2.458615
2012-05-04 08:05:52 51°13.874 2°53.003 18.5518 0.070161 0.345729 -2.458615
2012-05-04 08:05:58 51°13.862 2°52.976 18.5754 0.070161 0.345739 -2.458615
2012-05-04 08:06:03 51°13.852 2°52.952 18.5707 0.070161 0.34575 -2.458615
2012-05-04 08:06:08 51°13.843 2°52.929 18.5864 0.070161 0.345739 -2.458615
2012-05-04 08:06:13 51°13.834 2°52.905 18.5559 0.070161 0.345787 -2.458615
2012-05-04 08:06:18 51°13.823 2°52.883 18.5827 0.070161 0.345787 -2.458615
2012-05-04 08:06:23 51°13.814 2°52.859 18.5942 0.070161 0.345776 -2.458615
2012-05-04 08:06:28 51°13.804 2°52.836 18.5801 0.070161 0.345803 -2.458615
2012-05-04 08:06:32 51°13.797 2°52.818 18.5704 0.070161 0.345808 -2.458615
2012-05-04 08:06:38 51°13.785 2°52.79 18.5828 0.070161 0.345813 -2.458615
2012-05-04 08:06:43 51°13.775 2°52.766 18.5832 0.070161 0.345829 -2.458615
2012-05-04 08:06:48 51°13.766 2°52.743 18.5686 0.070161 0.345829 -2.458615
2012-05-04 08:06:52 51°13.758 2°52.724 18.5826 0.070161 0.34584 -2.458615
2012-05-04 08:06:58 51°13.747 2°52.695 18.5814 0.070161 0.34585 -2.458615
2012-05-04 08:07:03 51°13.738 2°52.672 18.5713 0.070161 0.345872 -2.458615
2012-05-04 08:07:08 51°13.728 2°52.648 18.5946 0.070161 0.345882 -2.458615
2012-05-04 08:07:13 51°13.719 2°52.624 18.579 0.070058 0.345382 -2.458615
2012-05-04 08:07:18 51°13.71 2°52.601 18.587 0.070058 0.345382 -2.458615
2012-05-04 08:07:23 51°13.701 2°52.577 18.5967 0.070058 0.345393 -2.458615
2012-05-04 08:07:28 51°13.692 2°52.553 18.5786 0.070058 0.345403 -2.458615
2012-05-04 08:07:32 51°13.684 2°52.534 18.5909 0.070058 0.345409 -2.458615
2012-05-04 08:07:38 51°13.673 2°52.506 18.582 0.070058 0.345424 -2.458615
2012-05-04 08:07:43 51°13.663 2°52.482 18.597 0.070058 0.345435 -2.458615
2012-05-04 08:07:48 51°13.653 2°52.459 18.5915 0.070058 0.345435 -2.458615
2012-05-04 08:07:52 51°13.646 2°52.44 18.5856 0.070058 0.345446 -2.458615
2012-05-04 08:07:58 51°13.635 2°52.412 18.5886 0.070058 0.345461 -2.458615
2012-05-04 08:08:03 51°13.625 2°52.389 18.5937 0.070058 0.345477 -2.458615
2012-05-04 08:08:08 51°13.616 2°52.365 18.5966 0.070058 0.345499 -2.458615
2012-05-04 08:08:12 51°13.608 2°52.347 18.5921 0.070058 0.345499 -2.458615
2012-05-04 08:08:18 51°13.596 2°52.318 18.6132 0.070058 0.345499 -2.458615
2012-05-04 08:08:23 51°13.587 2°52.295 18.5797 0.070058 0.34553 -2.458615
2012-05-04 08:08:28 51°13.577 2°52.272 18.6194 0.070058 0.34553 -2.458615
2012-05-04 08:08:32 51°13.569 2°52.253 18.5975 0.070058 0.345551 -2.458615
2012-05-04 08:08:38 51°13.557 2°52.226 18.6021 0.070058 0.345557 -2.458615
2012-05-04 08:08:43 51°13.547 2°52.203 18.6143 0.070058 0.345578 -2.458615
2012-05-04 08:08:48 51°13.536 2°52.181 18.5969 0.070058 0.345578 -2.458615
2012-05-04 08:08:53 51°13.526 2°52.158 18.6135 0.070058 0.345583 -2.458615
2012-05-04 08:08:58 51°13.516 2°52.136 18.5951 0.070058 0.345599 -2.458615
2012-05-04 08:09:02 51°13.507 2°52.118 18.6068 0.070058 0.34561 -2.458615
2012-05-04 08:09:08 51°13.495 2°52.091 18.6124 0.070058 0.345631 -2.458615
2012-05-04 08:09:12 51°13.486 2°52.073 18.619 0.070058 0.345631 -2.458615
2012-05-04 08:09:18 51°13.474 2°52.046 18.6209 0.070058 0.345631 -2.458615
2012-05-04 08:09:23 51°13.463 2°52.024 18.6059 0.070058 0.345652 -2.458615
2012-05-04 08:09:28 51°13.452 2°52.002 18.6037 0.070058 0.345663 -2.458615
2012-05-04 08:09:32 51°13.444 2°51.984 18.6224 0.070058 0.345673 -2.458615
2012-05-04 08:09:38 51°13.431 2°51.957 18.6114 0.069955 0.345167 -2.458615
2012-05-04 08:09:43 51°13.421 2°51.934 18.6133 0.069955 0.345183 -2.458615
2012-05-04 08:09:48 51°13.41 2°51.912 18.6142 0.069955 0.345183 -2.458615
2012-05-04 08:09:52 51°13.402 2°51.893 18.6184 0.069955 0.345194 -2.458615
2012-05-04 08:09:58 51°13.39 2°51.865 18.6211 0.069955 0.345205 -2.458615
2012-05-04 08:10:03 51°13.38 2°51.842 18.6252 0.069955 0.34522 -2.458615
2012-05-04 08:10:08 51°13.371 2°51.818 18.6237 0.069955 0.345236 -2.458615
2012-05-04 08:10:13 51°13.361 2°51.795 18.6292 0.069955 0.345247 -2.458615
2012-05-04 08:10:18 51°13.352 2°51.771 18.6377 0.069955 0.345247 -2.458615
2012-05-04 08:10:23 51°13.342 2°51.749 18.6211 0.069955 0.345273 -2.458615
2012-05-04 08:10:28 51°13.331 2°51.726 18.6115 0.069955 0.345284 -2.458615
2012-05-04 08:10:32 51°13.323 2°51.708 18.653 0.069955 0.345289 -2.458615
2012-05-04 08:10:38 51°13.311 2°51.68 18.605 0.069955 0.34531 -2.458615
2012-05-04 08:10:43 51°13.3 2°51.658 18.6721 0.069955 0.345321 -2.458615
2012-05-04 08:10:48 51°13.291 2°51.635 18.6357 0.069955 0.345321 -2.458615
2012-05-04 08:10:52 51°13.282 2°51.618 18.6564 0.069955 0.345342 -2.458615
2012-05-04 08:10:58 51°13.27 2°51.589 18.6519 0.069955 0.345358 -2.458615
2012-05-04 08:11:03 51°13.26 2°51.567 18.6306 0.069955 0.345374 -2.458615
2012-05-04 08:11:08 51°13.249 2°51.545 18.6326 0.069955 0.345374 -2.458615
2012-05-04 08:11:12 51°13.241 2°51.526 18.6464 0.069955 0.345385 -2.458615
2012-05-04 08:11:18 51°13.23 2°51.498 18.6237 0.069955 0.345385 -2.458615
2012-05-04 08:11:23 51°13.22 2°51.475 18.6333 0.069955 0.34539 -2.458615
2012-05-04 08:11:28 51°13.211 2°51.451 18.652 0.069955 0.345401 -2.458615
2012-05-04 08:11:33 51°13.202 2°51.428 18.6292 0.069955 0.345417 -2.458615
2012-05-04 08:11:38 51°13.193 2°51.403 18.6652 0.069955 0.345432 -2.458615
2012-05-04 08:11:43 51°13.185 2°51.379 18.6359 0.069955 0.345448 -2.458615
2012-05-04 08:11:48 51°13.175 2°51.355 18.6525 0.069955 0.345448 -2.458615
2012-05-04 08:11:52 51°13.168 2°51.336 18.647 0.069955 0.34548 -2.458615
2012-05-04 08:11:58 51°13.157 2°51.308 18.6692 0.069852 0.344968 -2.458615
2012-05-04 08:12:03 51°13.147 2°51.284 18.6408 0.069852 0.344984 -2.458615
2012-05-04 08:12:08 51°13.137 2°51.261 18.6591 0.069852 0.344995 -2.458615
2012-05-04 08:12:12 51°13.13 2°51.243 18.6309 0.069852 0.344995 -2.458615
2012-05-04 08:12:18 51°13.118 2°51.215 18.6719 0.069852 0.344995 -2.458615
2012-05-04 08:12:23 51°13.108 2°51.191 18.6343 0.069852 0.345011 -2.458615
2012-05-04 08:12:28 51°13.099 2°51.168 18.6723 0.069852 0.345011 -2.458615
2012-05-04 08:12:32 51°13.092 2°51.148 18.6539 0.069852 0.345048 -2.458615
2012-05-04 08:12:38 51°13.081 2°51.12 18.6829 0.069852 0.345048 -2.458615
2012-05-04 08:12:43 51°13.073 2°51.095 18.6652 0.069852 0.34508 -2.458615
2012-05-04 08:12:48 51°13.064 2°51.072 18.6519 0.069852 0.34508 -2.458615
2012-05-04 08:12:52 51°13.057 2°51.052 18.6744 0.069852 0.34509 -2.458615
2012-05-04 08:12:58 51°13.046 2°51.023 18.6617 0.069852 0.345106 -2.458615
2012-05-04 08:13:03 51°13.037 2°50.999 18.6776 0.069852 0.345112 -2.458615
2012-05-04 08:13:08 51°13.029 2°50.975 18.6571 0.069852 0.345128 -2.458615
2012-05-04 08:13:13 51°13.019 2°50.951 18.673 0.069852 0.345154 -2.458615
2012-05-04 08:13:18 51°13.01 2°50.927 18.6609 0.069852 0.345154 -2.458615
2012-05-04 08:13:23 51°13 2°50.904 18.6797 0.069852 0.345159 -2.458615
2012-05-04 08:13:28 51°12.99 2°50.88 18.6703 0.069852 0.345186 -2.458615
2012-05-04 08:13:32 51°12.982 2°50.862 18.6551 0.069852 0.345196 -2.458615
2012-05-04 08:13:38 51°12.97 2°50.834 18.6721 0.069852 0.345207 -2.458615
2012-05-04 08:13:43 51°12.96 2°50.811 18.6684 0.069852 0.345223 -2.458615
2012-05-04 08:13:48 51°12.951 2°50.787 18.6563 0.069852 0.345223 -2.458615
2012-05-04 08:13:52 51°12.943 2°50.768 18.6929 0.069852 0.345228 -2.458615
2012-05-04 08:13:58 51°12.933 2°50.739 18.6564 0.069852 0.345255 -2.458615
2012-05-04 08:14:03 51°12.924 2°50.714 18.705 0.069852 0.34526 -2.458615
2012-05-04 08:14:08 51°12.916 2°50.689 18.6724 0.069852 0.345292 -2.458615
2012-05-04 08:14:12 51°12.909 2°50.67 18.7032 0.069852 0.345303 -2.458615
2012-05-04 08:14:18 51°12.9 2°50.639 18.6743 0.069852 0.345303 -2.458615
2012-05-04 08:14:23 51°12.891 2°50.615 18.7209 0.069852 0.345313 -2.458615
2012-05-04 08:14:28 51°12.883 2°50.589 18.6782 0.069749 0.344822 -2.458615
2012-05-04 08:14:32 51°12.875 2°50.57 18.7167 0.069852 0.34534 -2.458615
2012-05-04 08:14:38 51°12.866 2°50.54 18.6841 0.069749 0.344838 -2.458615
2012-05-04 08:14:43 51°12.857 2°50.515 18.7194 0.069852 0.345372 -2.458615
2012-05-04 08:14:48 51°12.849 2°50.49 18.6816 0.069852 0.345372 -2.458615
2012-05-04 08:14:52 51°12.842 2°50.471 18.7168 0.069749 0.344859 -2.458615
2012-05-04 08:14:57 51°12.834 2°50.445 18.6959 0.069749 0.344881 -2.458615
2012-05-04 08:15:03 51°12.823 2°50.416 18.7116 0.069749 0.344886 -2.458615
2012-05-04 08:15:08 51°12.816 2°50.39 18.696 0.069749 0.344918 -2.458615
2012-05-04 08:15:12 51°12.81 2°50.37 18.705 0.069749 0.344918 -2.458615
2012-05-04 08:15:18 51°12.8 2°50.34 18.7121 0.069749 0.344918 -2.458615
2012-05-04 08:15:23 51°12.792 2°50.315 18.6946 0.069749 0.344939 -2.458615
2012-05-04 08:15:28 51°12.783 2°50.29 18.7003 0.069749 0.34495 -2.458615
2012-05-04 08:15:32 51°12.777 2°50.27 18.7004 0.069749 0.344971 -2.458615
2012-05-04 08:15:38 51°12.767 2°50.241 18.7071 0.069749 0.344987 -2.458615
2012-05-04 08:15:43 51°12.758 2°50.216 18.7061 0.069749 0.344981 -2.458615
2012-05-04 08:15:48 51°12.75 2°50.191 18.7352 0.069749 0.344981 -2.458615
2012-05-04 08:15:52 51°12.743 2°50.171 18.6907 0.069749 0.345019 -2.458615
2012-05-04 08:15:58 51°12.732 2°50.142 18.7383 0.069749 0.345013 -2.458615
2012-05-04 08:16:03 51°12.723 2°50.118 18.6987 0.069749 0.345045 -2.458615
2012-05-04 08:16:08 51°12.713 2°50.095 18.7216 0.069749 0.345045 -2.458615
2012-05-04 08:16:12 51°12.707 2°50.075 18.7118 0.069749 0.345066 -2.458615
2012-05-04 08:16:18 51°12.695 2°50.047 18.7132 0.069749 0.345066 -2.458615
2012-05-04 08:16:23 51°12.685 2°50.024 18.7088 0.069749 0.345077 -2.458615
2012-05-04 08:16:28 51°12.675 2°50.001 18.7187 0.069749 0.345093 -2.458615
2012-05-04 08:16:32 51°12.668 2°49.982 18.7241 0.069749 0.345104 -2.458615
2012-05-04 08:16:38 51°12.656 2°49.953 18.7171 0.069749 0.34512 -2.458615
2012-05-04 08:16:43 51°12.647 2°49.929 18.7343 0.069749 0.345136 -2.458615
2012-05-04 08:16:48 51°12.638 2°49.905 18.7255 0.069749 0.345136 -2.458615
2012-05-04 08:16:52 51°12.63 2°49.886 18.7126 0.069749 0.345151 -2.458615
2012-05-04 08:16:58 51°12.62 2°49.857 18.7466 0.069749 0.345162 -2.458615
2012-05-04 08:17:03 51°12.611 2°49.833 18.7071 0.069749 0.345183 -2.458615
2012-05-04 08:17:08 51°12.602 2°49.809 18.7611 0.069749 0.345189 -2.458615
2012-05-04 08:17:12 51°12.595 2°49.789 18.7247 0.069647 0.344681 -2.458615
2012-05-04 08:17:18 51°12.584 2°49.76 18.7761 0.069647 0.344681 -2.458615
2012-05-04 08:17:23 51°12.576 2°49.735 18.7292 0.069749 0.345231 -2.458615
2012-05-04 08:17:28 51°12.566 2°49.712 18.769 0.069647 0.344718 -2.458615
2012-05-04 08:17:32 51°12.559 2°49.692 18.7526 0.069647 0.34475 -2.458615
2012-05-04 08:17:38 51°12.548 2°49.664 18.757 0.069647 0.34475 -2.458615
2012-05-04 08:17:43 51°12.538 2°49.64 18.7497 0.069647 0.344787 -2.458615
2012-05-04 08:17:48 51°12.528 2°49.618 18.7477 0.069647 0.344787 -2.458615
2012-05-04 08:17:52 51°12.52 2°49.599 18.7601 0.069647 0.344782 -2.458615
2012-05-04 08:17:58 51°12.508 2°49.571 18.7545 0.069647 0.344798 -2.458615
2012-05-04 08:18:03 51°12.499 2°49.548 18.7288 0.069647 0.344814 -2.458615
2012-05-04 08:18:08 51°12.488 2°49.525 18.7505 0.069647 0.344814 -2.458615
2012-05-04 08:18:12 51°12.481 2°49.506 18.7458 0.069647 0.34483 -2.458615
2012-05-04 08:18:18 51°12.47 2°49.478 18.7524 0.069647 0.34483 -2.458615
2012-05-04 08:18:23 51°12.461 2°49.454 18.7616 0.069647 0.344846 -2.458615
2012-05-04 08:18:28 51°12.452 2°49.43 18.7504 0.069647 0.344867 -2.458615
2012-05-04 08:18:32 51°12.445 2°49.411 18.7549 0.069647 0.344883 -2.458615
2012-05-04 08:18:38 51°12.434 2°49.382 18.7508 0.069647 0.344894 -2.458615
2012-05-04 08:18:43 51°12.425 2°49.358 18.7444 0.069647 0.344915 -2.458615
2012-05-04 08:18:48 51°12.415 2°49.335 18.7525 0.069647 0.344915 -2.458615
2012-05-04 08:18:52 51°12.408 2°49.315 18.7683 0.069647 0.34492 -2.458615
2012-05-04 08:18:58 51°12.398 2°49.286 18.7614 0.069647 0.344947 -2.458615
2012-05-04 08:19:03 51°12.39 2°49.262 18.7588 0.069647 0.344958 -2.458615
2012-05-04 08:19:08 51°12.382 2°49.237 18.749 0.069647 0.344979 -2.458615
2012-05-04 08:19:12 51°12.375 2°49.218 18.7644 0.069647 0.344995 -2.458615
2012-05-04 08:19:18 51°12.365 2°49.188 18.7663 0.069647 0.344995 -2.458615
2012-05-04 08:19:23 51°12.357 2°49.163 18.7772 0.069647 0.345005 -2.458615
2012-05-04 08:19:28 51°12.349 2°49.139 18.766 0.069647 0.345021 -2.458615
2012-05-04 08:19:32 51°12.343 2°49.119 18.797 0.069544 0.344508 -2.458615
2012-05-04 08:19:38 51°12.333 2°49.09 18.7902 0.069647 0.345059 -2.458615
2012-05-04 08:19:43 51°12.325 2°49.066 18.7726 0.069544 0.344556 -2.458615
2012-05-04 08:19:48 51°12.316 2°49.043 18.7766 0.069544 0.344556 -2.458615
2012-05-04 08:19:52 51°12.309 2°49.024 18.7689 0.069544 0.344572 -2.458615
2012-05-04 08:19:58 51°12.298 2°48.996 18.7611 0.069544 0.344583 -2.458615
2012-05-04 08:20:03 51°12.289 2°48.972 18.7825 0.069544 0.344593 -2.458615
2012-05-04 08:20:08 51°12.28 2°48.949 18.7837 0.069544 0.344609 -2.458615
2012-05-04 08:20:12 51°12.273 2°48.93 18.7768 0.069544 0.344625 -2.458615
2012-05-04 08:20:18 51°12.262 2°48.902 18.7809 0.069544 0.344625 -2.458615
2012-05-04 08:20:23 51°12.254 2°48.878 18.773 0.069544 0.344636 -2.458615
2012-05-04 08:20:28 51°12.245 2°48.854 18.7887 0.069544 0.344657 -2.458615
2012-05-04 08:20:33 51°12.237 2°48.83 18.7957 0.069544 0.344673 -2.458615
2012-05-04 08:20:38 51°12.228 2°48.806 18.778 0.069544 0.344689 -2.458615
2012-05-04 08:20:43 51°12.22 2°48.782 18.827 0.069544 0.344716 -2.458615
2012-05-04 08:20:48 51°12.212 2°48.758 18.7834 0.069544 0.344716 -2.458615
2012-05-04 08:20:52 51°12.205 2°48.738 18.8087 0.069544 0.344721 -2.458615
2012-05-04 08:20:58 51°12.196 2°48.709 18.8036 0.069544 0.344748 -2.458615
2012-05-04 08:21:03 51°12.187 2°48.686 18.7894 0.069544 0.344758 -2.458615
2012-05-04 08:21:08 51°12.178 2°48.662 18.8034 0.069544 0.344769 -2.458615
2012-05-04 08:21:12 51°12.171 2°48.643 18.7938 0.069544 0.344779 -2.458615
2012-05-04 08:21:18 51°12.16 2°48.615 18.8189 0.069544 0.344779 -2.458615
2012-05-04 08:21:23 51°12.151 2°48.592 18.783 0.069544 0.344795 -2.458615
2012-05-04 08:21:28 51°12.141 2°48.569 18.7978 0.069544 0.344806 -2.458615
2012-05-04 08:21:32 51°12.134 2°48.55 18.8103 0.069544 0.344827 -2.458615
2012-05-04 08:21:38 51°12.122 2°48.523 18.7894 0.069544 0.344838 -2.458615
2012-05-04 08:21:43 51°12.113 2°48.499 18.8344 0.069544 0.344854 -2.458615
2012-05-04 08:21:48 51°12.105 2°48.475 18.811 0.069544 0.344854 -2.458615
2012-05-04 08:21:53 51°12.095 2°48.452 18.8156 0.069544 0.344881 -2.458615
2012-05-04 08:21:57 51°12.088 2°48.433 18.8274 0.069441 0.344362 -2.458615
2012-05-04 08:22:03 51°12.076 2°48.406 18.8287 0.069441 0.344377 -2.458615
2012-05-04 08:22:08 51°12.067 2°48.383 18.8049 0.069441 0.344399 -2.458615
2012-05-04 08:22:12 51°12.059 2°48.365 18.8098 0.069441 0.344399 -2.458615
2012-05-04 08:22:18 51°12.047 2°48.338 18.8279 0.069441 0.344399 -2.458615
2012-05-04 08:22:23 51°12.037 2°48.316 18.7954 0.069441 0.34442 -2.458615
2012-05-04 08:22:28 51°12.027 2°48.293 18.8347 0.069441 0.34442 -2.458615
2012-05-04 08:22:33 51°12.018 2°48.27 18.8245 0.069441 0.344447 -2.458615
2012-05-04 08:22:38 51°12.008 2°48.248 18.8124 0.069441 0.344463 -2.458615
2012-05-04 08:22:43 51°11.998 2°48.225 18.8225 0.069441 0.344468 -2.458615
2012-05-04 08:22:48 51°11.989 2°48.201 18.8301 0.069441 0.344468 -2.458615
2012-05-04 08:22:53 51°11.98 2°48.179 18.8221 0.069441 0.344495 -2.458615
2012-05-04 08:22:58 51°11.971 2°48.155 18.8354 0.069441 0.3445 -2.458615
2012-05-04 08:23:03 51°11.963 2°48.131 18.8545 0.069441 0.344516 -2.458615
2012-05-04 08:23:08 51°11.955 2°48.107 18.8295 0.069441 0.344542 -2.458615
2012-05-04 08:23:12 51°11.948 2°48.088 18.8519 0.069441 0.344548 -2.458615
2012-05-04 08:23:18 51°11.939 2°48.058 18.8522 0.069441 0.344548 -2.458615
2012-05-04 08:23:23 51°11.931 2°48.035 18.8294 0.069441 0.34458 -2.458615
2012-05-04 08:23:28 51°11.923 2°48.01 18.863 0.069441 0.34458 -2.458615
2012-05-04 08:23:32 51°11.917 2°47.99 18.8263 0.069441 0.344606 -2.458615
2012-05-04 08:23:38 51°11.907 2°47.961 18.8309 0.069441 0.344617 -2.458615
2012-05-04 08:23:43 51°11.9 2°47.937 18.8518 0.069441 0.344633 -2.458615
2012-05-04 08:23:48 51°11.893 2°47.912 18.8304 0.069441 0.344633 -2.458615
2012-05-04 08:23:52 51°11.887 2°47.892 18.8604 0.069441 0.344649 -2.458615
2012-05-04 08:23:58 51°11.879 2°47.861 18.8491 0.069441 0.344686 -2.458615
2012-05-04 08:24:03 51°11.872 2°47.837 18.8574 0.069338 0.344167 -2.458615
2012-05-04 08:24:08 51°11.865 2°47.811 18.8623 0.069338 0.344193 -2.458615
2012-05-04 08:24:12 51°11.86 2°47.791 18.8517 0.069338 0.34422 -2.458615
2012-05-04 08:24:18 51°11.852 2°47.761 18.8593 0.069338 0.34422 -2.458615
2012-05-04 08:24:23 51°11.846 2°47.735 18.87 0.069338 0.344231 -2.458615
2012-05-04 08:24:28 51°11.839 2°47.71 18.854 0.069338 0.344257 -2.458615
2012-05-04 08:24:32 51°11.833 2°47.69 18.874 0.069338 0.344263 -2.458615
2012-05-04 08:24:38 51°11.826 2°47.66 18.8655 0.069338 0.344279 -2.458615
2012-05-04 08:24:43 51°11.819 2°47.634 18.8555 0.069338 0.344295 -2.458615
2012-05-04 08:24:48 51°11.812 2°47.609 18.887 0.069338 0.344295 -2.458615
2012-05-04 08:24:52 51°11.807 2°47.589 18.8535 0.069338 0.344311 -2.458615
2012-05-04 08:24:58 51°11.797 2°47.56 18.8726 0.069338 0.344327 -2.458615
2012-05-04 08:25:03 51°11.791 2°47.535 18.8684 0.069338 0.344343 -2.458615
2012-05-04 08:25:08 51°11.783 2°47.511 18.8782 0.069338 0.344353 -2.458615
2012-05-04 08:25:13 51°11.775 2°47.486 18.8658 0.069338 0.344364 -2.458615
2012-05-04 08:25:18 51°11.768 2°47.461 18.8613 0.069338 0.344364 -2.458615
2012-05-04 08:25:23 51°11.761 2°47.436 18.8598 0.069338 0.344369 -2.458615
2012-05-04 08:25:28 51°11.754 2°47.412 18.8924 0.069338 0.344375 -2.458615
2012-05-04 08:25:32 51°11.748 2°47.392 18.8713 0.069338 0.344391 -2.458615
2012-05-04 08:25:38 51°11.74 2°47.362 18.8908 0.069338 0.344396 -2.458615
2012-05-04 08:25:43 51°11.733 2°47.337 18.8604 0.069338 0.344412 -2.458615
2012-05-04 08:25:48 51°11.725 2°47.313 18.8961 0.069338 0.344412 -2.458615
2012-05-04 08:25:52 51°11.72 2°47.292 18.8794 0.069338 0.344417 -2.458615
2012-05-04 08:25:58 51°11.711 2°47.263 18.8749 0.069338 0.344422 -2.458615
2012-05-04 08:26:03 51°11.704 2°47.238 18.901 0.069235 0.343908 -2.458615
2012-05-04 08:26:08 51°11.697 2°47.214 18.8766 0.069235 0.343918 -2.458615
2012-05-04 08:26:12 51°11.691 2°47.194 18.9138 0.069235 0.343934 -2.458615
2012-05-04 08:26:17 51°11.684 2°47.17 18.8671 0.069235 0.343934 -2.458615
2012-05-04 08:26:23 51°11.674 2°47.141 18.9152 0.069235 0.343934 -2.458615
2012-05-04 08:26:28 51°11.666 2°47.117 18.858 0.069235 0.34395 -2.458615
2012-05-04 08:26:32 51°11.659 2°47.099 18.9324 0.069235 0.343956 -2.458615
2012-05-04 08:26:38 51°11.65 2°47.07 18.8773 0.069235 0.343972 -2.458615
2012-05-04 08:26:43 51°11.641 2°47.046 18.9329 0.069235 0.343977 -2.458615
2012-05-04 08:26:48 51°11.634 2°47.022 18.8699 0.069235 0.343977 -2.458615
2012-05-04 08:26:53 51°11.625 2°46.998 18.9049 0.069235 0.343988 -2.458615
2012-05-04 08:26:58 51°11.619 2°46.974 18.9261 0.069235 0.343993 -2.458615
2012-05-04 08:27:02 51°11.612 2°46.955 18.8892 0.069235 0.344004 -2.458615
2012-05-04 08:27:08 51°11.602 2°46.927 18.9398 0.069235 0.344014 -2.458615
2012-05-04 08:27:12 51°11.596 2°46.908 18.8965 0.069235 0.34403 -2.458615
2012-05-04 08:27:18 51°11.586 2°46.88 18.9113 0.069235 0.34403 -2.458615
2012-05-04 08:27:23 51°11.578 2°46.857 18.8998 0.069235 0.344036 -2.458615
2012-05-04 08:27:28 51°11.569 2°46.834 18.9043 0.069235 0.344052 -2.458615
2012-05-04 08:27:32 51°11.562 2°46.815 18.9233 0.069235 0.344052 -2.458615
2012-05-04 08:27:38 51°11.552 2°46.788 18.8772 0.069235 0.344068 -2.458615
2012-05-04 08:27:43 51°11.543 2°46.766 18.9205 0.069235 0.344078 -2.458615
2012-05-04 08:27:48 51°11.535 2°46.742 18.8969 0.069235 0.344078 -2.458615
2012-05-04 08:27:52 51°11.528 2°46.724 18.8965 0.069235 0.344094 -2.458615
2012-05-04 08:27:58 51°11.518 2°46.697 18.9117 0.069235 0.3441 -2.458615
2012-05-04 08:28:03 51°11.51 2°46.673 18.9244 0.069235 0.34411 -2.458615
2012-05-04 08:28:08 51°11.503 2°46.65 18.9092 0.069235 0.344126 -2.458615
2012-05-04 08:28:12 51°11.495 2°46.632 18.9178 0.069235 0.344137 -2.458615
2012-05-04 08:28:18 51°11.486 2°46.604 18.9241 0.069235 0.344137 -2.458615
2012-05-04 08:28:23 51°11.477 2°46.581 18.9232 0.069235 0.344148 -2.458615
2012-05-04 08:28:28 51°11.469 2°46.557 18.9214 0.069133 0.343627 -2.458615
2012-05-04 08:28:33 51°11.461 2°46.535 18.9293 0.069133 0.343638 -2.458615
2012-05-04 08:28:38 51°11.452 2°46.512 18.9094 0.069133 0.343649 -2.458615
2012-05-04 08:28:43 51°11.444 2°46.489 18.933 0.069133 0.343659 -2.458615
2012-05-04 08:28:48 51°11.436 2°46.466 18.9332 0.069133 0.343659 -2.458615
2012-05-04 08:28:52 51°11.429 2°46.448 18.9266 0.069133 0.343665 -2.458615
2012-05-04 08:28:58 51°11.419 2°46.42 18.9459 0.069133 0.343675 -2.458615
2012-05-04 08:29:03 51°11.411 2°46.396 18.9201 0.069133 0.343686 -2.458615
2012-05-04 08:29:08 51°11.403 2°46.374 18.9252 0.069133 0.343697 -2.458615
2012-05-04 08:29:12 51°11.396 2°46.355 18.9568 0.069133 0.343713 -2.458615
2012-05-04 08:29:18 51°11.387 2°46.327 18.9413 0.069133 0.343713 -2.458615
2012-05-04 08:29:23 51°11.379 2°46.304 18.9434 0.069133 0.343723 -2.458615
2012-05-04 08:29:28 51°11.371 2°46.281 18.9156 0.069133 0.343734 -2.458615
2012-05-04 08:29:33 51°11.362 2°46.258 18.9413 0.069133 0.343744 -2.458615
2012-05-04 08:29:38 51°11.354 2°46.235 18.9268 0.069133 0.343755 -2.458615
2012-05-04 08:29:42 51°11.348 2°46.217 18.9516 0.069133 0.343766 -2.458615
2012-05-04 08:29:48 51°11.338 2°46.189 18.9357 0.069133 0.343766 -2.458615
2012-05-04 08:29:53 51°11.33 2°46.166 18.9511 0.069133 0.343776 -2.458615
2012-05-04 08:29:58 51°11.323 2°46.142 18.9389 0.069133 0.343792 -2.458615
2012-05-04 08:30:03 51°11.316 2°46.118 18.9597 0.069133 0.343808 -2.458615
2012-05-04 08:30:08 51°11.308 2°46.095 18.9485 0.069133 0.343819 -2.458615
2012-05-04 08:30:12 51°11.302 2°46.076 18.941 0.069133 0.34383 -2.458615
2012-05-04 08:30:18 51°11.293 2°46.047 18.9698 0.069133 0.34383 -2.458615
2012-05-04 08:30:23 51°11.286 2°46.023 18.94 0.069133 0.343846 -2.458615
2012-05-04 08:30:28 51°11.279 2°45.999 18.9555 0.069133 0.343856 -2.458615
2012-05-04 08:30:32 51°11.274 2°45.98 18.949 0.069133 0.343872 -2.458615
2012-05-04 08:30:38 51°11.265 2°45.951 18.9575 0.069133 0.343883 -2.458615
2012-05-04 08:30:43 51°11.259 2°45.927 18.9669 0.06903 0.343384 -2.458615
2012-05-04 08:30:48 51°11.252 2°45.902 18.9607 0.06903 0.343384 -2.458615
2012-05-04 08:30:53 51°11.246 2°45.878 18.9618 0.06903 0.343394 -2.458615
2012-05-04 08:30:58 51°11.239 2°45.854 18.968 0.06903 0.343421 -2.458615
2012-05-04 08:31:03 51°11.232 2°45.829 18.9681 0.06903 0.343437 -2.458615
2012-05-04 08:31:08 51°11.225 2°45.805 18.9641 0.06903 0.343453 -2.458615
2012-05-04 08:31:12 51°11.22 2°45.786 18.9657 0.06903 0.343474 -2.458615
2012-05-04 08:31:18 51°11.211 2°45.757 18.9507 0.06903 0.343474 -2.458615
2012-05-04 08:31:23 51°11.203 2°45.734 18.9807 0.06903 0.34349 -2.458615
2012-05-04 08:31:28 51°11.196 2°45.71 18.9546 0.06903 0.343506 -2.458615
2012-05-04 08:31:32 51°11.19 2°45.692 18.969 0.06903 0.343517 -2.458615
2012-05-04 08:31:38 51°11.181 2°45.663 18.9604 0.06903 0.343533 -2.458615
2012-05-04 08:31:43 51°11.174 2°45.64 18.9904 0.06903 0.343554 -2.458615
2012-05-04 08:31:48 51°11.166 2°45.617 18.9606 0.06903 0.343554 -2.458615
2012-05-04 08:31:53 51°11.158 2°45.593 18.9777 0.06903 0.343565 -2.458615
2012-05-04 08:31:58 51°11.151 2°45.57 18.9481 0.06903 0.343592 -2.458615
2012-05-04 08:32:03 51°11.142 2°45.547 19.0006 0.06903 0.343602 -2.458615
2012-05-04 08:32:08 51°11.135 2°45.523 18.9565 0.06903 0.343629 -2.458615
2012-05-04 08:32:13 51°11.127 2°45.5 18.9908 0.06903 0.34364 -2.458615
2012-05-04 08:32:18 51°11.121 2°45.476 18.9862 0.06903 0.34364 -2.458615
2012-05-04 08:32:23 51°11.113 2°45.452 18.9801 0.06903 0.343666 -2.458615
2012-05-04 08:32:28 51°11.106 2°45.429 18.9749 0.06903 0.343677 -2.458615
2012-05-04 08:32:32 51°11.1 2°45.41 18.9669 0.06903 0.343693 -2.458615
2012-05-04 08:32:38 51°11.092 2°45.381 19.0094 0.068927 0.343183 -2.458615
2012-05-04 08:32:43 51°11.085 2°45.357 18.969 0.068927 0.343209 -2.458615
2012-05-04 08:32:48 51°11.077 2°45.334 18.994 0.068927 0.343209 -2.458615
2012-05-04 08:32:52 51°11.071 2°45.315 18.9991 0.068927 0.34323 -2.458615
2012-05-04 08:32:58 51°11.062 2°45.288 18.9739 0.068927 0.343257 -2.458615
2012-05-04 08:33:03 51°11.054 2°45.264 19.0104 0.068927 0.343268 -2.458615
2012-05-04 08:33:08 51°11.048 2°45.24 18.9903 0.068927 0.343305 -2.458615
2012-05-04 08:33:12 51°11.041 2°45.222 18.9568 0.068927 0.343321 -2.458615
2012-05-04 08:33:18 51°11.033 2°45.193 19.0292 0.068927 0.343321 -2.458615
2012-05-04 08:33:23 51°11.027 2°45.168 18.9839 0.068927 0.343348 -2.458615
2012-05-04 08:33:28 51°11.019 2°45.145 18.9942 0.068927 0.343364 -2.458615
2012-05-04 08:33:33 51°11.013 2°45.121 19.0143 0.068927 0.343385 -2.458615
2012-05-04 08:33:38 51°11.006 2°45.097 18.9891 0.068927 0.343396 -2.458615
2012-05-04 08:33:43 51°11 2°45.073 19.0367 0.068927 0.343428 -2.458615
2012-05-04 08:33:48 51°10.993 2°45.049 18.9969 0.068927 0.343428 -2.458615
2012-05-04 08:33:52 51°10.987 2°45.03 19.0192 0.068927 0.343439 -2.458615
2012-05-04 08:33:58 51°10.979 2°45.002 19.0098 0.068927 0.34346 -2.458615
2012-05-04 08:34:03 51°10.971 2°44.978 19.0078 0.068927 0.343476 -2.458615
2012-05-04 08:34:08 51°10.964 2°44.955 19.004 0.068927 0.343492 -2.458615
2012-05-04 08:34:12 51°10.958 2°44.937 18.9873 0.068927 0.343513 -2.458615
2012-05-04 08:34:18 51°10.948 2°44.909 18.9982 0.068927 0.343513 -2.458615
2012-05-04 08:34:23 51°10.941 2°44.886 19.02 0.068927 0.343524 -2.458615
2012-05-04 08:34:28 51°10.933 2°44.862 18.998 0.068927 0.343551 -2.458615
2012-05-04 08:34:32 51°10.928 2°44.843 19.0342 0.068927 0.343567 -2.458615
2012-05-04 08:34:38 51°10.92 2°44.814 19.0285 0.068824 0.343082 -2.458615
2012-05-04 08:34:43 51°10.913 2°44.79 18.9913 0.068927 0.343631 -2.458615
2012-05-04 08:34:48 51°10.906 2°44.767 19.0316 0.068927 0.343631 -2.458615
2012-05-04 08:34:52 51°10.901 2°44.747 19.0262 0.068824 0.343157 -2.458615
2012-05-04 08:34:58 51°10.894 2°44.718 19.0181 0.068824 0.343184 -2.458615
2012-05-04 08:35:03 51°10.887 2°44.695 19.022 0.068824 0.343221 -2.458615
2012-05-04 08:35:08 51°10.881 2°44.671 19.0233 0.068824 0.343237 -2.458615
2012-05-04 08:35:12 51°10.876 2°44.651 19.0282 0.068824 0.343285 -2.458615
2012-05-04 08:35:17 51°10.87 2°44.626 19.0142 0.068824 0.343285 -2.458615
2012-05-04 08:35:23 51°10.863 2°44.597 19.0273 0.068824 0.343307 -2.458615
2012-05-04 08:35:28 51°10.858 2°44.573 19.0432 0.068824 0.343334 -2.458615
2012-05-04 08:35:32 51°10.853 2°44.553 19.0358 0.068824 0.343366 -2.458615
2012-05-04 08:35:38 51°10.846 2°44.524 19.0503 0.068824 0.343392 -2.458615
2012-05-04 08:35:43 51°10.841 2°44.5 19.0315 0.068824 0.343419 -2.458615
2012-05-04 08:35:48 51°10.835 2°44.476 19.0219 0.068824 0.343419 -2.458615
2012-05-04 08:35:52 51°10.83 2°44.456 19.0709 0.068824 0.343435 -2.458615
2012-05-04 08:35:58 51°10.824 2°44.427 19.0294 0.068824 0.343467 -2.458615
2012-05-04 08:36:03 51°10.817 2°44.403 19.0504 0.068824 0.343467 -2.458615
2012-05-04 08:36:08 51°10.812 2°44.379 19.0269 0.068824 0.343483 -2.458615
2012-05-04 08:36:13 51°10.805 2°44.355 19.0647 0.068824 0.343494 -2.458615
2012-05-04 08:36:18 51°10.8 2°44.331 19.0244 0.068824 0.343494 -2.458615
2012-05-04 08:36:23 51°10.793 2°44.307 19.0501 0.068824 0.343499 -2.458615
2012-05-04 08:36:28 51°10.788 2°44.282 19.0523 0.068824 0.34351 -2.458615
2012-05-04 08:36:33 51°10.781 2°44.259 19.0522 0.068824 0.343521 -2.458615
2012-05-04 08:36:38 51°10.775 2°44.235 19.04 0.068824 0.343537 -2.458615
2012-05-04 08:36:43 51°10.768 2°44.211 19.0737 0.068824 0.343548 -2.458615
2012-05-04 08:36:48 51°10.762 2°44.187 19.0434 0.068824 0.343548 -2.458615
2012-05-04 08:36:53 51°10.755 2°44.164 19.0514 0.068824 0.343558 -2.458615
2012-05-04 08:36:58 51°10.749 2°44.14 19.0644 0.068824 0.343564 -2.458615
2012-05-04 08:37:03 51°10.741 2°44.117 19.0646 0.068824 0.343569 -2.458615
2012-05-04 08:37:08 51°10.734 2°44.094 19.0718 0.068824 0.343574 -2.458615
2012-05-04 08:37:12 51°10.728 2°44.075 19.0667 0.068721 0.343052 -2.458615
2012-05-04 08:37:18 51°10.719 2°44.048 19.0363 0.068721 0.343052 -2.458615
2012-05-04 08:37:23 51°10.711 2°44.026 19.0565 0.068721 0.343057 -2.458615
2012-05-04 08:37:28 51°10.704 2°44.003 19.0761 0.068721 0.343068 -2.458615
2012-05-04 08:37:32 51°10.698 2°43.984 19.0562 0.068721 0.343095 -2.458615
2012-05-04 08:37:37 51°10.69 2°43.962 19.0873 0.068721 0.343127 -2.458615
2012-05-04 08:37:43 51°10.681 2°43.935 19.0451 0.068721 0.343137 -2.458615
2012-05-04 08:37:48 51°10.673 2°43.913 19.0811 0.068721 0.343137 -2.458615
2012-05-04 08:37:52 51°10.667 2°43.894 19.0623 0.068721 0.34318 -2.458615
2012-05-04 08:37:58 51°10.657 2°43.868 19.0874 0.068721 0.343191 -2.458615
2012-05-04 08:38:03 51°10.65 2°43.845 19.0623 0.068721 0.343223 -2.458615
2012-05-04 08:38:08 51°10.641 2°43.823 19.0673 0.068721 0.343234 -2.458615
2012-05-04 08:38:12 51°10.635 2°43.805 19.0701 0.068721 0.343261 -2.458615
2012-05-04 08:38:18 51°10.626 2°43.778 19.0732 0.068721 0.343261 -2.458615
2012-05-04 08:38:23 51°10.618 2°43.755 19.0716 0.068721 0.343271 -2.458615
2012-05-04 08:38:28 51°10.611 2°43.732 19.0623 0.068721 0.343287 -2.458615
2012-05-04 08:38:33 51°10.603 2°43.71 19.0851 0.068721 0.343298 -2.458615
2012-05-04 08:38:38 51°10.597 2°43.686 19.0724 0.068721 0.343325 -2.458615
2012-05-04 08:38:43 51°10.589 2°43.664 19.0707 0.068721 0.343341 -2.458615
2012-05-04 08:38:48 51°10.582 2°43.641 19.1002 0.068721 0.343341 -2.458615
2012-05-04 08:38:52 51°10.577 2°43.623 19.0595 0.068721 0.343368 -2.458615
2012-05-04 08:38:58 51°10.568 2°43.596 19.0913 0.068721 0.343378 -2.458615
2012-05-04 08:39:03 51°10.562 2°43.572 19.0892 0.068721 0.343411 -2.458615
2012-05-04 08:39:08 51°10.556 2°43.548 19.1162 0.068721 0.343432 -2.458615
2012-05-04 08:39:12 51°10.552 2°43.529 19.0611 0.068721 0.343464 -2.458615
2012-05-04 08:39:18 51°10.545 2°43.5 19.0978 0.068721 0.343464 -2.458615
2012-05-04 08:39:23 51°10.54 2°43.476 19.0738 0.068721 0.343486 -2.458615
2012-05-04 08:39:28 51°10.534 2°43.452 19.0931 0.068721 0.343513 -2.458615
2012-05-04 08:39:32 51°10.531 2°43.433 19.0782 0.068721 0.343539 -2.458615
2012-05-04 08:39:38 51°10.525 2°43.404 19.086 0.068721 0.343561 -2.458615
2012-05-04 08:39:43 51°10.52 2°43.38 19.1076 0.068721 0.343582 -2.458615
2012-05-04 08:39:48 51°10.515 2°43.356 19.1069 0.068721 0.343582 -2.458615
2012-05-04 08:39:52 51°10.512 2°43.337 19.1117 0.068721 0.343609 -2.458615
2012-05-04 08:39:58 51°10.507 2°43.308 19.0941 0.068721 0.343631 -2.458615
2012-05-04 08:40:03 51°10.502 2°43.284 19.0992 0.068721 0.343652 -2.458615
2012-05-04 08:40:08 51°10.497 2°43.26 19.0964 0.068721 0.343674 -2.458615
2012-05-04 08:40:12 51°10.494 2°43.241 19.1031 0.068619 0.343161 -2.458615
2012-05-04 08:40:18 51°10.488 2°43.212 19.0929 0.068619 0.343161 -2.458615
2012-05-04 08:40:23 51°10.483 2°43.188 19.1158 0.068721 0.343711 -2.458615
2012-05-04 08:40:28 51°10.479 2°43.164 19.1085 0.068721 0.343733 -2.458615
2012-05-04 08:40:33 51°10.474 2°43.14 19.0993 0.068619 0.343231 -2.458615
2012-05-04 08:40:38 51°10.469 2°43.116 19.1189 0.068619 0.343268 -2.458615
2012-05-04 08:40:43 51°10.464 2°43.093 19.1013 0.068619 0.34329 -2.458615
2012-05-04 08:40:48 51°10.459 2°43.07 19.1154 0.068619 0.34329 -2.458615
2012-05-04 08:40:52 51°10.455 2°43.051 19.119 0.068619 0.343322 -2.458615
2012-05-04 08:40:58 51°10.448 2°43.023 19.1138 0.068619 0.343359 -2.458615
2012-05-04 08:41:03 51°10.443 2°42.999 19.1107 0.068619 0.343386 -2.458615
2012-05-04 08:41:08 51°10.437 2°42.976 19.1163 0.068619 0.343413 -2.458615
2012-05-04 08:41:12 51°10.433 2°42.957 19.1361 0.068619 0.34344 -2.458615
2012-05-04 08:41:18 51°10.426 2°42.929 19.1192 0.068619 0.34344 -2.458615
2012-05-04 08:41:23 51°10.42 2°42.906 19.1137 0.068619 0.343467 -2.458615
2012-05-04 08:41:28 51°10.415 2°42.882 19.1144 0.068619 0.343494 -2.458615
2012-05-04 08:41:32 51°10.41 2°42.863 19.1196 0.068619 0.343526 -2.458615
2012-05-04 08:41:38 51°10.404 2°42.835 19.1161 0.068619 0.343574 -2.458615
2012-05-04 08:41:43 51°10.398 2°42.811 19.1287 0.068619 0.343585 -2.458615
2012-05-04 08:41:48 51°10.393 2°42.787 19.117 0.068619 0.343585 -2.458615
2012-05-04 08:41:52 51°10.389 2°42.768 19.1163 0.068619 0.343634 -2.458615
2012-05-04 08:41:58 51°10.383 2°42.74 19.1319 0.068619 0.343644 -2.458615
2012-05-04 08:42:03 51°10.379 2°42.716 19.1149 0.068619 0.343677 -2.458615
2012-05-04 08:42:08 51°10.374 2°42.692 19.1572 0.068619 0.343709 -2.458615
2012-05-04 08:42:12 51°10.371 2°42.672 19.1137 0.068619 0.343731 -2.458615
2012-05-04 08:42:18 51°10.365 2°42.643 19.1581 0.068619 0.343731 -2.458615
2012-05-04 08:42:23 51°10.362 2°42.619 19.1199 0.068619 0.343757 -2.458615
2012-05-04 08:42:28 51°10.357 2°42.595 19.1338 0.068619 0.34379 -2.458615
2012-05-04 08:42:33 51°10.354 2°42.571 19.1843 0.068619 0.343817 -2.458615
2012-05-04 08:42:38 51°10.35 2°42.547 19.1556 0.068619 0.343865 -2.458615
2012-05-04 08:42:43 51°10.345 2°42.523 19.1461 0.068619 0.343892 -2.458615
2012-05-04 08:42:48 51°10.339 2°42.5 19.1269 0.068619 0.343892 -2.458615
2012-05-04 08:42:53 51°10.332 2°42.477 19.1617 0.068619 0.343903 -2.458615
2012-05-04 08:42:58 51°10.326 2°42.455 19.1234 0.068619 0.343935 -2.458615
2012-05-04 08:43:03 51°10.319 2°42.433 19.1331 0.068619 0.343952 -2.458615
2012-05-04 08:43:08 51°10.311 2°42.411 19.1242 0.068619 0.343968 -2.458615
2012-05-04 08:43:12 51°10.305 2°42.394 19.1646 0.068619 0.343995 -2.458615
2012-05-04 08:43:18 51°10.295 2°42.369 19.1074 0.068619 0.343995 -2.458615
2012-05-04 08:43:23 51°10.286 2°42.348 19.1779 0.068619 0.344005 -2.458615
2012-05-04 08:43:28 51°10.279 2°42.326 19.1158 0.068619 0.344043 -2.458615
2012-05-04 08:43:32 51°10.271 2°42.31 19.1432 0.068619 0.344049 -2.458615
2012-05-04 08:43:38 51°10.262 2°42.284 19.1814 0.068619 0.344076 -2.458615
2012-05-04 08:43:43 51°10.253 2°42.263 19.1223 0.068619 0.344108 -2.458615
2012-05-04 08:43:48 51°10.244 2°42.243 19.1641 0.068619 0.344108 -2.458615
2012-05-04 08:43:52 51°10.237 2°42.226 19.1389 0.068619 0.344119 -2.458615
2012-05-04 08:43:58 51°10.226 2°42.202 19.1431 0.068619 0.344135 -2.458615
2012-05-04 08:44:03 51°10.217 2°42.181 19.1558 0.068619 0.344151 -2.458615
2012-05-04 08:44:08 51°10.208 2°42.161 19.1626 0.068619 0.344162 -2.458615
2012-05-04 08:44:12 51°10.201 2°42.144 19.1438 0.068619 0.3442 -2.458615
2012-05-04 08:44:18 51°10.19 2°42.121 19.1551 0.068619 0.3442 -2.458615
2012-05-04 08:44:23 51°10.181 2°42.1 19.1573 0.068619 0.344216 -2.458615
2012-05-04 08:44:28 51°10.171 2°42.081 19.1595 0.068619 0.344243 -2.458615
2012-05-04 08:44:32 51°10.163 2°42.065 19.161 0.068619 0.34427 -2.458615
2012-05-04 08:44:38 51°10.151 2°42.042 19.171 0.068516 0.343766 -2.458615
2012-05-04 08:44:43 51°10.141 2°42.023 19.183 0.068619 0.344319 -2.458615
2012-05-04 08:44:48 51°10.131 2°42.003 19.1674 0.068619 0.344319 -2.458615
2012-05-04 08:44:52 51°10.123 2°41.988 19.1806 0.068516 0.34381 -2.458615
2012-05-04 08:44:58 51°10.112 2°41.964 19.1604 0.068516 0.343837 -2.458615
2012-05-04 08:45:03 51°10.102 2°41.946 19.1895 0.068516 0.343847 -2.458615
2012-05-04 08:45:08 51°10.093 2°41.926 19.1492 0.068516 0.343885 -2.458615
2012-05-04 08:45:13 51°10.083 2°41.907 19.1524 0.068516 0.343874 -2.458615
2012-05-04 08:45:18 51°10.073 2°41.886 19.2212 0.068516 0.343874 -2.458615
2012-05-04 08:45:23 51°10.065 2°41.866 19.1461 0.068516 0.343918 -2.458615
2012-05-04 08:45:28 51°10.055 2°41.847 19.1903 0.068516 0.343912 -2.458615
2012-05-04 08:45:33 51°10.046 2°41.827 19.1621 0.068516 0.343934 -2.458615
2012-05-04 08:45:38 51°10.037 2°41.807 19.1688 0.068516 0.343939 -2.458615
2012-05-04 08:45:43 51°10.029 2°41.785 19.1586 0.068516 0.343961 -2.458615
2012-05-04 08:45:48 51°10.02 2°41.765 19.1746 0.068516 0.343961 -2.458615
2012-05-04 08:45:52 51°10.014 2°41.748 19.1756 0.068516 0.343982 -2.458615
2012-05-04 08:45:58 51°10.005 2°41.722 19.1984 0.068516 0.343993 -2.458615
2012-05-04 08:46:03 51°9.997 2°41.7 19.1939 0.068516 0.34402 -2.458615
2012-05-04 08:46:08 51°9.989 2°41.679 19.1905 0.068516 0.344037 -2.458615
2012-05-04 08:46:12 51°9.983 2°41.662 19.2062 0.068516 0.344064 -2.458615
2012-05-04 08:46:18 51°9.974 2°41.636 19.1888 0.068516 0.344064 -2.458615
2012-05-04 08:46:23 51°9.966 2°41.615 19.2103 0.068516 0.344085 -2.458615
2012-05-04 08:46:28 51°9.959 2°41.593 19.2039 0.068516 0.344107 -2.458615
2012-05-04 08:46:33 51°9.951 2°41.572 19.2226 0.068516 0.344129 -2.458615
2012-05-04 08:46:38 51°9.943 2°41.551 19.1808 0.068516 0.344156 -2.458615
2012-05-04 08:46:43 51°9.934 2°41.531 19.1985 0.068516 0.344172 -2.458615
2012-05-04 08:46:48 51°9.925 2°41.51 19.2165 0.068516 0.344172 -2.458615
2012-05-04 08:46:52 51°9.918 2°41.494 19.1696 0.068516 0.344204 -2.458615
2012-05-04 08:46:58 51°9.907 2°41.47 19.2111 0.068516 0.344215 -2.458615
2012-05-04 08:47:03 51°9.899 2°41.45 19.1722 0.068516 0.344248 -2.458615
2012-05-04 08:47:08 51°9.89 2°41.429 19.2211 0.068516 0.344258 -2.458615
2012-05-04 08:47:12 51°9.885 2°41.413 19.2026 0.068516 0.344302 -2.458615
2012-05-04 08:47:18 51°9.876 2°41.392 19.2309 0.068516 0.344302 -2.458615
2012-05-04 08:47:23 51°9.871 2°41.375 19.2046 0.068516 0.344318 -2.458615
2012-05-04 08:47:28 51°9.866 2°41.36 19.2106 0.068413 0.343808 -2.458615
2012-05-04 08:47:32 51°9.863 2°41.348 19.2266 0.068516 0.344372 -2.458615
2012-05-04 08:47:38 51°9.86 2°41.332 19.2326 0.068516 0.344389 -2.458615
2012-05-04 08:47:43 51°9.858 2°41.319 19.2208 0.068413 0.343889 -2.458615
2012-05-04 08:47:48 51°9.856 2°41.308 19.2188 0.068413 0.343889 -2.458615
2012-05-04 08:47:52 51°9.854 2°41.299 19.2349 0.068413 0.343916 -2.458615
2012-05-04 08:47:58 51°9.853 2°41.286 19.2034 0.068413 0.343949 -2.458615
2012-05-04 08:48:03 51°9.852 2°41.277 19.2397 0.068413 0.343976 -2.458615
2012-05-04 08:48:08 51°9.851 2°41.268 19.2285 0.068413 0.343998 -2.458615
2012-05-04 08:48:12 51°9.851 2°41.261 19.2319 0.068413 0.344025 -2.458615
2012-05-04 08:48:18 51°9.85 2°41.251 19.2164 0.068413 0.344025 -2.458615
2012-05-04 08:48:23 51°9.849 2°41.243 19.2417 0.068413 0.344046 -2.458615
2012-05-04 08:48:28 51°9.849 2°41.236 19.2241 0.068413 0.344079 -2.458615
2012-05-04 08:48:33 51°9.849 2°41.229 19.2328 0.068413 0.344101 -2.458615
2012-05-04 08:48:37 51°9.849 2°41.224 19.2305 0.068413 0.344122 -2.458615
2012-05-04 08:48:43 51°9.849 2°41.216 19.2365 0.068413 0.344149 -2.458615
2012-05-04 08:48:48 51°9.849 2°41.21 19.2204 0.068413 0.344149 -2.458615
2012-05-04 08:48:52 51°9.848 2°41.205 19.2353 0.068413 0.344171 -2.458615
2012-05-04 08:48:58 51°9.848 2°41.197 19.2428 0.068413 0.344193 -2.458615
2012-05-04 08:49:03 51°9.848 2°41.192 19.2343 0.068413 0.34422 -2.458615
2012-05-04 08:49:08 51°9.847 2°41.186 19.2249 0.068413 0.344242 -2.458615
2012-05-04 08:49:12 51°9.847 2°41.182 19.2317 0.068413 0.344258 -2.458615
2012-05-04 08:49:18 51°9.846 2°41.175 19.2234 0.068413 0.344258 -2.458615
2012-05-04 08:49:23 51°9.845 2°41.17 19.2389 0.068413 0.344274 -2.458615
2012-05-04 08:49:28 51°9.844 2°41.165 19.2421 0.068413 0.344296 -2.458615
2012-05-04 08:49:32 51°9.844 2°41.161 19.2378 0.068413 0.344318 -2.458615
2012-05-04 08:49:38 51°9.843 2°41.155 19.2425 0.068413 0.344339 -2.458615
2012-05-04 08:49:43 51°9.842 2°41.151 19.238 0.068413 0.34435 -2.458615
2012-05-04 08:49:48 51°9.841 2°41.146 19.2318 0.068413 0.34435 -2.458615
2012-05-04 08:49:52 51°9.84 2°41.142 19.2326 0.068413 0.344372 -2.458615
2012-05-04 08:49:58 51°9.839 2°41.138 19.2473 0.068413 0.344383 -2.458615
2012-05-04 08:50:03 51°9.838 2°41.134 19.25 0.068413 0.344399 -2.458615
2012-05-04 08:50:08 51°9.837 2°41.13 19.2527 0.068413 0.344421 -2.458615
2012-05-04 08:50:12 51°9.836 2°41.127 19.2429 0.068413 0.344426 -2.458615
2012-05-04 08:50:18 51°9.835 2°41.123 19.258 0.068413 0.344426 -2.458615
2012-05-04 08:50:23 51°9.832 2°41.121 19.2379 0.068413 0.344448 -2.458615
2012-05-04 08:50:28 51°9.831 2°41.118 19.2671 0.068413 0.344459 -2.458615
2012-05-04 08:50:32 51°9.83 2°41.115 19.259 0.068413 0.344481 -2.458615
2012-05-04 08:50:38 51°9.829 2°41.111 19.2633 0.06831 0.343959 -2.458615
2012-05-04 08:50:43 51°9.828 2°41.108 19.2407 0.06831 0.343975 -2.458615
2012-05-04 08:50:48 51°9.827 2°41.106 19.259 0.06831 0.343975 -2.458615
2012-05-04 08:50:53 51°9.826 2°41.103 19.2817 0.06831 0.343991 -2.458615
2012-05-04 08:50:58 51°9.825 2°41.1 19.2601 0.06831 0.344008 -2.458615
2012-05-04 08:51:03 51°9.824 2°41.097 19.2732 0.06831 0.344019 -2.458615
2012-05-04 08:51:08 51°9.823 2°41.095 19.2517 0.06831 0.344035 -2.458615
2012-05-04 08:51:12 51°9.822 2°41.093 19.2799 0.06831 0.344062 -2.458615
2012-05-04 08:51:18 51°9.822 2°41.09 19.2545 0.06831 0.344062 -2.458615
2012-05-04 08:51:23 51°9.821 2°41.088 19.2684 0.06831 0.344068 -2.458615
2012-05-04 08:51:28 51°9.82 2°41.085 19.2534 0.06831 0.344084 -2.458615
2012-05-04 08:51:32 51°9.819 2°41.084 19.2698 0.06831 0.344089 -2.458615
2012-05-04 08:51:38 51°9.819 2°41.081 19.2753 0.06831 0.344111 -2.458615
2012-05-04 08:51:43 51°9.818 2°41.079 19.2833 0.06831 0.344122 -2.458615
2012-05-04 08:51:48 51°9.817 2°41.077 19.28 0.06831 0.344122 -2.458615
2012-05-04 08:51:52 51°9.816 2°41.076 19.2676 0.06831 0.344138 -2.458615
2012-05-04 08:51:58 51°9.816 2°41.073 19.2896 0.06831 0.344154 -2.458615
2012-05-04 08:52:03 51°9.815 2°41.072 19.282 0.06831 0.344165 -2.458615
2012-05-04 08:52:08 51°9.815 2°41.07 19.2765 0.06831 0.344182 -2.458615
2012-05-04 08:52:13 51°9.814 2°41.068 19.2764 0.06831 0.344187 -2.458615
2012-05-04 08:52:18 51°9.813 2°41.066 19.2915 0.06831 0.344187 -2.458615
2012-05-04 08:52:23 51°9.814 2°41.064 19.2786 0.06831 0.344209 -2.458615
2012-05-04 08:52:28 51°9.814 2°41.062 19.2818 0.06831 0.344214 -2.458615
2012-05-04 08:52:33 51°9.813 2°41.06 19.2792 0.06831 0.344231 -2.458615
2012-05-04 08:52:38 51°9.813 2°41.059 19.2956 0.06831 0.344241 -2.458615
2012-05-04 08:52:43 51°9.813 2°41.057 19.2834 0.06831 0.344252 -2.458615
2012-05-04 08:52:48 51°9.812 2°41.055 19.2964 0.06831 0.344252 -2.458615
2012-05-04 08:52:52 51°9.812 2°41.052 19.2774 0.06831 0.344263 -2.458615
2012-05-04 08:52:58 51°9.811 2°41.049 19.2863 0.06831 0.344274 -2.458615
2012-05-04 08:53:03 51°9.81 2°41.045 19.2943 0.06831 0.344285 -2.458615
2012-05-04 08:53:08 51°9.809 2°41.042 19.2816 0.06831 0.344301 -2.458615
2012-05-04 08:53:12 51°9.808 2°41.038 19.2851 0.068207 0.343779 -2.458615
2012-05-04 08:53:18 51°9.807 2°41.032 19.2923 0.068207 0.343779 -2.458615
2012-05-04 08:53:23 51°9.806 2°41.027 19.3014 0.068207 0.34379 -2.458615
2012-05-04 08:53:28 51°9.805 2°41.021 19.2882 0.06831 0.344339 -2.458615
2012-05-04 08:53:32 51°9.805 2°41.016 19.2988 0.068207 0.343812 -2.458615
2012-05-04 08:53:38 51°9.804 2°41.008 19.2888 0.068207 0.343828 -2.458615
2012-05-04 08:53:43 51°9.802 2°41.001 19.3004 0.068207 0.343839 -2.458615
2012-05-04 08:53:48 51°9.801 2°40.993 19.3039 0.068207 0.343839 -2.458615
2012-05-04 08:53:53 51°9.8 2°40.986 19.3004 0.068207 0.34385 -2.458615
2012-05-04 08:53:58 51°9.8 2°40.978 19.2864 0.068207 0.343861 -2.458615
2012-05-04 08:54:03 51°9.799 2°40.97 19.2967 0.068207 0.343866 -2.458615
2012-05-04 08:54:08 51°9.798 2°40.961 19.3088 0.068207 0.343877 -2.458615
2012-05-04 08:54:13 51°9.798 2°40.953 19.295 0.068207 0.343888 -2.458615
2012-05-04 08:54:18 51°9.797 2°40.944 19.3093 0.068207 0.343888 -2.458615
2012-05-04 08:54:23 51°9.797 2°40.935 19.2983 0.068207 0.343899 -2.458615
2012-05-04 08:54:28 51°9.796 2°40.927 19.3142 0.068207 0.343909 -2.458615
2012-05-04 08:54:33 51°9.796 2°40.918 19.3163 0.068207 0.343926 -2.458615
2012-05-04 08:54:38 51°9.796 2°40.909 19.3188 0.068207 0.343937 -2.458615
2012-05-04 08:54:43 51°9.796 2°40.899 19.3085 0.068207 0.343948 -2.458615
2012-05-04 08:54:48 51°9.796 2°40.89 19.3156 0.068207 0.343948 -2.458615
2012-05-04 08:54:52 51°9.796 2°40.883 19.3169 0.068207 0.343953 -2.458615
2012-05-04 08:54:58 51°9.796 2°40.872 19.3091 0.068207 0.343964 -2.458615
2012-05-04 08:55:03 51°9.796 2°40.863 19.3208 0.068207 0.343975 -2.458615
2012-05-04 08:55:08 51°9.796 2°40.854 19.3265 0.068207 0.34398 -2.458615
2012-05-04 08:55:12 51°9.796 2°40.847 19.3135 0.068207 0.343991 -2.458615
2012-05-04 08:55:18 51°9.797 2°40.836 19.3187 0.068207 0.343991 -2.458615
2012-05-04 08:55:23 51°9.797 2°40.827 19.3206 0.068207 0.344002 -2.458615
2012-05-04 08:55:28 51°9.798 2°40.819 19.3316 0.068207 0.344013 -2.458615
2012-05-04 08:55:32 51°9.798 2°40.812 19.3293 0.068207 0.344024 -2.458615
2012-05-04 08:55:38 51°9.798 2°40.802 19.3309 0.068207 0.344029 -2.458615
2012-05-04 08:55:43 51°9.799 2°40.794 19.3316 0.068207 0.34404 -2.458615
2012-05-04 08:55:48 51°9.8 2°40.786 19.338 0.068207 0.34404 -2.458615
2012-05-04 08:55:52 51°9.8 2°40.78 19.3192 0.068207 0.344051 -2.458615
2012-05-04 08:55:58 51°9.801 2°40.77 19.3296 0.068207 0.344062 -2.458615
2012-05-04 08:56:03 51°9.802 2°40.762 19.3474 0.068207 0.344078 -2.458615
2012-05-04 08:56:08 51°9.803 2°40.754 19.3368 0.068207 0.344084 -2.458615
2012-05-04 08:56:12 51°9.804 2°40.748 19.3432 0.068207 0.344094 -2.458615
2012-05-04 08:56:18 51°9.804 2°40.738 19.3342 0.068207 0.344094 -2.458615
2012-05-04 08:56:23 51°9.805 2°40.731 19.3425 0.068207 0.344105 -2.458615
2012-05-04 08:56:28 51°9.806 2°40.723 19.339 0.068207 0.344116 -2.458615
2012-05-04 08:56:32 51°9.807 2°40.717 19.338 0.068207 0.344122 -2.458615
2012-05-04 08:56:38 51°9.808 2°40.708 19.327 0.068105 0.343599 -2.458615
2012-05-04 08:56:43 51°9.81 2°40.701 19.3209 0.068105 0.34361 -2.458615
2012-05-04 08:56:48 51°9.81 2°40.693 19.3344 0.068105 0.34361 -2.458615
2012-05-04 08:56:53 51°9.812 2°40.686 19.3472 0.068105 0.343626 -2.458615
2012-05-04 08:56:58 51°9.812 2°40.678 19.3454 0.068105 0.343637 -2.458615
2012-05-04 08:57:03 51°9.813 2°40.671 19.3545 0.068105 0.343648 -2.458615
2012-05-04 08:57:08 51°9.814 2°40.664 19.334 0.068105 0.343659 -2.458615
2012-05-04 08:57:12 51°9.814 2°40.658 19.3392 0.068105 0.343675 -2.458615
2012-05-04 08:57:18 51°9.815 2°40.649 19.3542 0.068105 0.343675 -2.458615
2012-05-04 08:57:23 51°9.815 2°40.641 19.3472 0.068105 0.343686 -2.458615
2012-05-04 08:57:28 51°9.815 2°40.634 19.3527 0.068105 0.343697 -2.458615
2012-05-04 08:57:32 51°9.815 2°40.629 19.3446 0.068105 0.343708 -2.458615
2012-05-04 08:57:38 51°9.814 2°40.62 19.3591 0.068105 0.343719 -2.458615
2012-05-04 08:57:43 51°9.813 2°40.613 19.3546 0.068105 0.343729 -2.458615
2012-05-04 08:57:48 51°9.813 2°40.606 19.3609 0.068105 0.343729 -2.458615
2012-05-04 08:57:52 51°9.812 2°40.6 19.3606 0.068105 0.343735 -2.458615
2012-05-04 08:57:58 51°9.81 2°40.592 19.3556 0.068105 0.343751 -2.458615
2012-05-04 08:58:03 51°9.809 2°40.586 19.3722 0.068105 0.343751 -2.458615
2012-05-04 08:58:08 51°9.807 2°40.579 19.3818 0.068105 0.343762 -2.458615
2012-05-04 08:58:13 51°9.806 2°40.572 19.3723 0.068105 0.343768 -2.458615
2012-05-04 08:58:18 51°9.803 2°40.566 19.3604 0.068105 0.343768 -2.458615
2012-05-04 08:58:23 51°9.801 2°40.56 19.3697 0.068105 0.343768 -2.458615
2012-05-04 08:58:28 51°9.8 2°40.553 19.3623 0.068105 0.343778 -2.458615
2012-05-04 08:58:32 51°9.798 2°40.548 19.3801 0.068105 0.343784 -2.458615
2012-05-04 08:58:38 51°9.796 2°40.54 19.3632 0.068105 0.343789 -2.458615
2012-05-04 08:58:43 51°9.794 2°40.534 19.3653 0.068105 0.343806 -2.458615
2012-05-04 08:58:48 51°9.791 2°40.527 19.3748 0.068105 0.343806 -2.458615
2012-05-04 08:58:53 51°9.79 2°40.521 19.3654 0.068105 0.343817 -2.458615
2012-05-04 08:58:58 51°9.787 2°40.514 19.3683 0.068105 0.343817 -2.458615
2012-05-04 08:59:03 51°9.785 2°40.508 19.3693 0.068105 0.343833 -2.458615
2012-05-04 08:59:08 51°9.783 2°40.501 19.366 0.068105 0.343838 -2.458615
2012-05-04 08:59:13 51°9.781 2°40.494 19.3808 0.068105 0.343844 -2.458615
2012-05-04 08:59:18 51°9.779 2°40.487 19.3774 0.068105 0.343844 -2.458615
2012-05-04 08:59:23 51°9.777 2°40.481 19.3813 0.068105 0.343855 -2.458615
2012-05-04 08:59:28 51°9.775 2°40.474 19.3766 0.068105 0.343866 -2.458615
2012-05-04 08:59:32 51°9.773 2°40.468 19.3866 0.068105 0.343876 -2.458615
2012-05-04 08:59:38 51°9.771 2°40.46 19.3781 0.068105 0.343887 -2.458615
2012-05-04 08:59:43 51°9.769 2°40.453 19.3882 0.068105 0.343898 -2.458615
2012-05-04 08:59:48 51°9.767 2°40.446 19.3875 0.068105 0.343898 -2.458615
2012-05-04 08:59:52 51°9.765 2°40.44 19.3844 0.068105 0.343909 -2.458615
2012-05-04 08:59:58 51°9.763 2°40.431 19.3791 0.068105 0.34392 -2.458615
2012-05-04 09:00:03 51°9.761 2°40.424 19.4029 0.068105 0.343925 -2.458615
2012-05-04 09:00:08 51°9.76 2°40.417 19.386 0.068105 0.343942 -2.458615
2012-05-04 09:00:13 51°9.757 2°40.41 19.3963 0.068105 0.343947 -2.458615
2012-05-04 09:00:18 51°9.756 2°40.403 19.3866 0.068105 0.343947 -2.458615
2012-05-04 09:00:23 51°9.754 2°40.396 19.38 0.068105 0.343964 -2.458615
2012-05-04 09:00:28 51°9.752 2°40.389 19.3839 0.068105 0.343969 -2.458615
2012-05-04 09:00:32 51°9.751 2°40.383 19.3896 0.068105 0.34398 -2.458615
2012-05-04 09:00:38 51°9.749 2°40.374 19.3992 0.068105 0.343991 -2.458615
2012-05-04 09:00:43 51°9.747 2°40.367 19.3969 0.068105 0.343996 -2.458615
2012-05-04 09:00:48 51°9.745 2°40.36 19.3965 0.068105 0.343996 -2.458615
2012-05-04 09:00:52 51°9.744 2°40.354 19.397 0.068105 0.344002 -2.458615
2012-05-04 09:00:58 51°9.742 2°40.345 19.4069 0.068002 0.343473 -2.458615
2012-05-04 09:01:03 51°9.741 2°40.338 19.3969 0.068002 0.343484 -2.458615
2012-05-04 09:01:08 51°9.739 2°40.331 19.4028 0.068002 0.343489 -2.458615
2012-05-04 09:01:12 51°9.737 2°40.325 19.3935 0.068002 0.343495 -2.458615
2012-05-04 09:01:18 51°9.735 2°40.317 19.4084 0.068002 0.343495 -2.458615
2012-05-04 09:01:23 51°9.733 2°40.31 19.4124 0.068002 0.343506 -2.458615
2012-05-04 09:01:28 51°9.731 2°40.303 19.4012 0.068002 0.343511 -2.458615
2012-05-04 09:01:32 51°9.729 2°40.297 19.4116 0.068002 0.343516 -2.458615
2012-05-04 09:01:38 51°9.727 2°40.289 19.4105 0.068002 0.343522 -2.458615
2012-05-04 09:01:43 51°9.724 2°40.282 19.4061 0.068002 0.343533 -2.458615
2012-05-04 09:01:48 51°9.722 2°40.275 19.4059 0.068002 0.343533 -2.458615
2012-05-04 09:01:52 51°9.72 2°40.269 19.4215 0.068002 0.343538 -2.458615
2012-05-04 09:01:58 51°9.717 2°40.261 19.4135 0.068002 0.343544 -2.458615
2012-05-04 09:02:03 51°9.715 2°40.254 19.4206 0.068002 0.343549 -2.458615
2012-05-04 09:02:08 51°9.713 2°40.247 19.4026 0.068002 0.34356 -2.458615
2012-05-04 09:02:12 51°9.711 2°40.242 19.4183 0.068002 0.343565 -2.458615
2012-05-04 09:02:18 51°9.708 2°40.234 19.422 0.068002 0.343565 -2.458615
2012-05-04 09:02:23 51°9.705 2°40.227 19.4203 0.068002 0.343571 -2.458615
2012-05-04 09:02:28 51°9.703 2°40.22 19.405 0.068002 0.343576 -2.458615
2012-05-04 09:02:33 51°9.7 2°40.214 19.4259 0.068002 0.343582 -2.458615
2012-05-04 09:02:38 51°9.698 2°40.207 19.4336 0.068002 0.343582 -2.458615
2012-05-04 09:02:42 51°9.696 2°40.202 19.4157 0.068002 0.343593 -2.458615
2012-05-04 09:02:48 51°9.692 2°40.194 19.4334 0.068002 0.343593 -2.458615
2012-05-04 09:02:52 51°9.69 2°40.189 19.4128 0.068002 0.343593 -2.458615
2012-05-04 09:02:58 51°9.687 2°40.182 19.4336 0.068002 0.343598 -2.458615
2012-05-04 09:03:03 51°9.684 2°40.175 19.4293 0.068002 0.343604 -2.458615
2012-05-04 09:03:08 51°9.681 2°40.169 19.4144 0.068002 0.343609 -2.458615
2012-05-04 09:03:12 51°9.678 2°40.164 19.4389 0.068002 0.343615 -2.458615
2012-05-04 09:03:18 51°9.675 2°40.156 19.4204 0.068002 0.343615 -2.458615
2012-05-04 09:03:23 51°9.672 2°40.15 19.4326 0.068002 0.343625 -2.458615
2012-05-04 09:03:28 51°9.669 2°40.144 19.4291 0.068002 0.343636 -2.458615
2012-05-04 09:03:32 51°9.666 2°40.139 19.4279 0.068002 0.343653 -2.458615
2012-05-04 09:03:38 51°9.663 2°40.131 19.4311 0.068002 0.343664 -2.458615
2012-05-04 09:03:43 51°9.66 2°40.125 19.4221 0.068002 0.343674 -2.458615
2012-05-04 09:03:48 51°9.657 2°40.119 19.4441 0.068002 0.343674 -2.458615
2012-05-04 09:03:52 51°9.655 2°40.114 19.4308 0.068002 0.343691 -2.458615
2012-05-04 09:03:58 51°9.651 2°40.107 19.4415 0.067899 0.343162 -2.458615
2012-05-04 09:04:03 51°9.648 2°40.1 19.4324 0.068002 0.343707 -2.458615
2012-05-04 09:04:08 51°9.645 2°40.094 19.4448 0.068002 0.343724 -2.458615
2012-05-04 09:04:12 51°9.643 2°40.089 19.437 0.068002 0.343729 -2.458615
2012-05-04 09:04:18 51°9.639 2°40.082 19.4454 0.068002 0.343729 -2.458615
2012-05-04 09:04:23 51°9.637 2°40.075 19.4345 0.068002 0.34374 -2.458615
2012-05-04 09:04:28 51°9.634 2°40.069 19.4448 0.068002 0.343751 -2.458615
2012-05-04 09:04:32 51°9.631 2°40.064 19.4503 0.068002 0.343762 -2.458615
2012-05-04 09:04:38 51°9.628 2°40.056 19.4585 0.067899 0.343238 -2.458615
2012-05-04 09:04:43 51°9.625 2°40.05 19.4407 0.067899 0.343249 -2.458615
2012-05-04 09:04:48 51°9.622 2°40.043 19.4535 0.067899 0.343249 -2.458615
2012-05-04 09:04:53 51°9.62 2°40.037 19.44 0.067899 0.343254 -2.458615
2012-05-04 09:04:58 51°9.617 2°40.031 19.4513 0.067899 0.34326 -2.458615
2012-05-04 09:05:02 51°9.615 2°40.025 19.4447 0.067899 0.343271 -2.458615
2012-05-04 09:05:08 51°9.611 2°40.018 19.4609 0.067899 0.343276 -2.458615
2012-05-04 09:05:12 51°9.609 2°40.012 19.456 0.067899 0.343281 -2.458615
2012-05-04 09:05:18 51°9.606 2°40.005 19.4546 0.067899 0.343281 -2.458615
2012-05-04 09:05:23 51°9.603 2°39.998 19.4473 0.067899 0.343287 -2.458615
2012-05-04 09:05:28 51°9.601 2°39.992 19.459 0.067899 0.343292 -2.458615
2012-05-04 09:05:33 51°9.598 2°39.985 19.4625 0.067899 0.343298 -2.458615
2012-05-04 09:05:38 51°9.596 2°39.978 19.4572 0.067899 0.343309 -2.458615
2012-05-04 09:05:43 51°9.593 2°39.972 19.4599 0.067899 0.34332 -2.458615
2012-05-04 09:05:48 51°9.591 2°39.965 19.4643 0.067899 0.34332 -2.458615
2012-05-04 09:05:53 51°9.588 2°39.958 19.4697 0.067899 0.34333 -2.458615
2012-05-04 09:05:58 51°9.586 2°39.952 19.4576 0.067899 0.343336 -2.458615
2012-05-04 09:06:03 51°9.583 2°39.945 19.4639 0.067899 0.343341 -2.458615
2012-05-04 09:06:08 51°9.581 2°39.938 19.4698 0.067899 0.343358 -2.458615
2012-05-04 09:06:12 51°9.579 2°39.933 19.4734 0.067899 0.343369 -2.458615
2012-05-04 09:06:18 51°9.576 2°39.925 19.4661 0.067899 0.343369 -2.458615
2012-05-04 09:06:23 51°9.574 2°39.918 19.4782 0.067899 0.34338 -2.458615
2012-05-04 09:06:28 51°9.572 2°39.911 19.4594 0.067899 0.34339 -2.458615
2012-05-04 09:06:32 51°9.57 2°39.906 19.4718 0.067899 0.343401 -2.458615
2012-05-04 09:06:38 51°9.568 2°39.897 19.468 0.067899 0.343412 -2.458615
2012-05-04 09:06:43 51°9.566 2°39.891 19.4709 0.067899 0.343429 -2.458615
2012-05-04 09:06:48 51°9.563 2°39.884 19.472 0.067899 0.343429 -2.458615
2012-05-04 09:06:52 51°9.562 2°39.879 19.4739 0.067899 0.343434 -2.458615
2012-05-04 09:06:58 51°9.559 2°39.87 19.4778 0.067899 0.343445 -2.458615
2012-05-04 09:07:03 51°9.557 2°39.864 19.4845 0.067899 0.343456 -2.458615
2012-05-04 09:07:08 51°9.555 2°39.857 19.4691 0.067899 0.343472 -2.458615
2012-05-04 09:07:12 51°9.553 2°39.852 19.4891 0.067899 0.343478 -2.458615
2012-05-04 09:07:18 51°9.55 2°39.843 19.4565 0.067899 0.343478 -2.458615
2012-05-04 09:07:23 51°9.548 2°39.837 19.4691 0.067899 0.343489 -2.458615
2012-05-04 09:07:28 51°9.546 2°39.83 19.4772 0.067899 0.343505 -2.458615
2012-05-04 09:07:32 51°9.544 2°39.825 19.4857 0.067899 0.34351 -2.458615
2012-05-04 09:07:38 51°9.541 2°39.816 19.4624 0.067899 0.343521 -2.458615
2012-05-04 09:07:43 51°9.539 2°39.81 19.4739 0.067899 0.343532 -2.458615
2012-05-04 09:07:48 51°9.536 2°39.803 19.4809 0.067899 0.343532 -2.458615
2012-05-04 09:07:52 51°9.534 2°39.798 19.4842 0.067899 0.343538 -2.458615
2012-05-04 09:07:58 51°9.531 2°39.79 19.4826 0.067899 0.343549 -2.458615
2012-05-04 09:08:03 51°9.529 2°39.784 19.4816 0.067899 0.34356 -2.458615
2012-05-04 09:08:08 51°9.526 2°39.777 19.4765 0.067899 0.34357 -2.458615